KC5DAQ-22 Weather Reports


time (UTC)temp
C
wind
direction
speed
KPH
gust
KPH
rain 1hr
cm
rain 24hr
cm
rain mn
cm
humidity
%
barometer
mb
20260904225659 30 334 4.8 6.4 0.00 0.13 0.00 84 1010.2
20260904225600 30 334 3.2 6.4 0.00 0.13 0.00 84 1010.1
20260904225459 30 334 3.2 6.4 0.00 0.13 0.00 84 1010.2
20260904225359 30 334 3.2 6.4 0.00 0.13 0.00 84 1010.1
20260904225300 30 334 3.2 6.4 0.00 0.13 0.00 84 1010.1
20260904225158 30 334 3.2 4.8 0.00 0.13 0.00 84 1010.2
20260904225058 30 334 3.2 4.8 0.00 0.13 0.00 84 1010.1
20260904224959 30 334 3.2 4.8 0.00 0.13 0.00 84 1010.1
20260904224859 30 334 3.2 6.4 0.00 0.13 0.00 84 1010.1
20260904224759 30 334 3.2 6.4 0.00 0.13 0.00 83 1010.1
20260904224659 30 334 3.2 6.4 0.00 0.13 0.00 84 1010.1
20260904224600 30 334 3.2 6.4 0.00 0.13 0.00 84 1010.1
20260904224500 30 334 3.2 6.4 0.00 0.13 0.00 84 1010.1
20260904224358 30 334 3.2 6.4 0.00 0.13 0.00 84 1010.1
20260904224258 29 334 3.2 6.4 0.00 0.13 0.00 84 1010.1
20260904224158 29 334 3.2 6.4 0.00 0.13 0.00 84 1010.1
20260904224058 29 334 4.8 6.4 0.00 0.13 0.00 83 1010.2
20260904223959 29 334 3.2 6.4 0.03 0.13 0.00 83 1010.2
20260904223900 29 334 3.2 8.0 0.03 0.13 0.00 85 1010.2
20260904223800 29 334 3.2 8.0 0.08 0.13 0.00 85 1010.2
20260904223657 29 334 3.2 8.0 0.10 0.13 0.00 87 1010.1
20260904223559 28 331 3.2 8.0 0.13 0.13 0.00 86 1010.2
20260904223500 28 331 3.2 8.0 0.13 0.13 0.00 86 1010.2
20260904223359 28 331 3.2 8.0 0.13 0.13 0.00 86 1010.1
20260904223232 28 331 4.8 8.0 0.13 0.13 0.00 86 1010.1
20260904223125 28 331 4.8 9.7 0.13 0.13 0.00 87 1010.2
20260904223021 28 330 4.8 9.7 0.13 0.13 0.00 88 1010.1
20260904222918 28 330 3.2 9.7 0.13 0.13 0.00 88 1010.1
20260904222818 28 316 3.2 9.7 0.13 0.13 0.00 88 1010.2
20260904222715 28 316 4.8 9.7 0.13 0.13 0.00 89 1010.2
20260904222612 28 316 6.4 9.7 0.13 0.13 0.00 89 1010.2
20260904222510 27 316 4.8 9.7 0.13 0.13 0.00 89 1010.3
20260904222406 27 314 6.4 9.7 0.13 0.13 0.00 89 1010.2
20260904222306 27 314 8.0 9.7 0.13 0.13 0.00 89 1010.3
20260904222203 27 299 6.4 8.0 0.13 0.13 0.00 91 1010.3
20260904222104 27 334 4.8 8.0 0.13 0.13 0.00 91 1010.4
20260904222003 27 334 4.8 8.0 0.13 0.13 0.00 91 1010.3
20260904221904 27 341 3.2 8.0 0.13 0.13 0.00 91 1010.3
20260904221801 27 341 3.2 8.0 0.13 0.13 0.00 91 1010.3
20260904221703 27 341 3.2 8.0 0.13 0.13 0.00 91 1010.3
20260904221603 27 341 3.2 8.0 0.13 0.13 0.00 91 1010.3
20260904221503 27 341 3.2 8.0 0.13 0.13 0.00 90 1010.3
20260904221402 27 340 3.2 8.0 0.13 0.13 0.00 92 1010.3
20260904221304 27 340 4.8 8.0 0.13 0.13 0.00 91 1010.4
20260904221203 27 340 3.2 8.0 0.13 0.13 0.00 91 1010.4
20260904221102 27 340 3.2 8.0 0.13 0.13 0.00 91 1010.3
20260904221003 27 340 3.2 8.0 0.13 0.13 0.00 91 1010.4
20260904220904 27 338 4.8 11.3 0.13 0.13 0.00 91 1010.4
20260904220803 27 338 4.8 11.3 0.13 0.13 0.00 91 1010.4
20260904220704 27 337 4.8 11.3 0.13 0.13 0.00 90 1010.5
20260904220603 27 337 6.4 11.3 0.13 0.13 0.00 89 1010.5
20260904220502 27 321 6.4 11.3 0.13 0.13 0.00 90 1010.5
20260904220403 27 299 9.7 11.3 0.13 0.13 0.13 91 1010.6
20260904220304 27 299 9.7 11.3 0.13 0.13 0.13 91 1010.6
20260904220201 27 299 9.7 11.3 0.13 0.13 0.13 91 1010.5
20260904220058 27 299 9.7 11.3 0.13 0.13 0.13 91 1010.6
20260904215957 27 299 9.7 11.3 0.00 0.00 0.13 92 1010.5
20260904215858 27 303 8.0 9.7 0.00 0.00 0.13 92 1010.5
20260904215757 27 309 4.8 8.0 0.00 0.00 0.13 91 1010.6
20260904215658 27 323 3.2 6.4 0.00 0.00 0.13 91 1010.5
20260904215600 27 323 3.2 6.4 0.00 0.00 0.13 91 1010.5
20260904215458 27 323 0.0 6.4 0.00 0.00 0.13 91 1010.6
20260904215358 27 323 0.0 6.4 0.00 0.00 0.13 91 1010.6
20260904215259 27 323 0.0 6.4 0.00 0.00 0.13 92 1010.6
20260904215159 27 323 1.6 6.4 0.00 0.00 0.13 92 1010.6
20260904215057 27 323 3.2 6.4 0.00 0.00 0.13 91 1010.6
20260904214957 27 323 3.2 6.4 0.00 0.00 0.13 90 1010.5
20260904214857 27 320 3.2 6.4 0.00 0.00 0.13 90 1010.6
20260904214758 27 317 3.2 6.4 0.00 0.00 0.13 90 1010.6
20260904214659 27 317 1.6 6.4 0.00 0.00 0.13 89 1010.7
20260904214558 27 317 1.6 6.4 0.00 0.00 0.13 90 1010.8
20260904214457 27 317 3.2 6.4 0.00 0.00 0.13 90 1010.7
20260904214358 27 317 3.2 6.4 0.00 0.00 0.13 89 1010.7
20260904214256 27 317 3.2 6.4 0.00 0.00 0.13 89 1010.8
20260904214159 27 317 4.8 6.4 0.00 0.00 0.13 88 1010.8
20260904214057 27 317 6.4 6.4 0.00 0.00 0.10 88 1010.7
20260904213957 27 317 4.8 6.4 0.00 0.00 0.10 88 1010.7
20260904213859 27 317 3.2 4.8 0.00 0.00 0.05 87 1010.7
20260904213756 27 317 3.2 4.8 0.00 0.00 0.03 86 1010.7
20260904213657 27 317 3.2 4.8 0.00 0.00 0.00 86 1010.6
20260904213558 27 317 3.2 4.8 0.00 0.00 0.00 85 1010.6
20260904213457 27 317 3.2 4.8 0.00 0.00 0.00 85 1010.6
20260904213357 27 316 3.2 0.0 0.00 0.00 0.00 85 1010.6
20260904213257 -17 0.0 0.0 0.00 0.00 0.00 1010.6
20260904212732 30 104 14.5 20.9 0.08 0.00 0.08 78 1011.0
20260904212632 30 104 14.5 20.9 0.08 0.00 0.08 78 1011.1
20260904212532 30 104 14.5 20.9 0.08 0.00 0.08 78 1011.1
20260904212432 30 104 14.5 20.9 0.08 0.00 0.08 78 1011.0
20260904212332 30 104 14.5 20.9 0.08 0.00 0.08 78 1010.9
20260904212232 30 89 16.1 20.9 0.03 0.00 0.03 78 1010.9
20260904212132 30 96 16.1 20.9 0.03 0.00 0.00 77 1010.7
20260904212031 30 83 14.5 24.1 0.00 0.00 0.00 77 1010.7
20260904211932 30 93 16.1 24.1 0.00 0.00 0.00 76 1010.6
20260904211831 31 102 16.1 24.1 0.00 0.00 0.00 76 1010.6
20260904211732 31 96 12.9 24.1 0.00 0.00 0.00 76 1010.6
20260904211631 31 63 12.9 24.1 0.00 0.00 0.00 75 1010.5
20260904211531 31 114 14.5 24.1 0.00 0.00 0.00 74 1010.6
20260904211432 31 117 12.9 24.1 0.00 0.00 0.00 74 1010.6
20260904211332 31 76 14.5 24.1 0.00 0.00 0.00 73 1010.6
20260904211231 31 99 17.7 24.1 0.00 0.00 0.00 73 1010.7
20260904211131 31 73 17.7 24.1 0.00 0.00 0.00 72 1010.7
20260904211031 31 114 14.5 20.9 0.00 0.00 0.00 72 1010.6
20260904210931 31 102 11.3 17.7 0.00 0.00 0.00 72 1010.7
20260904210831 31 121 8.0 17.7 0.00 0.00 0.00 72 1010.7
20260904210731 31 52 4.8 8.0 0.00 0.00 0.00 72 1010.6
20260904210631 31 0 3.2 6.4 0.00 0.00 0.00 72 1010.5
20260904210531 32 0 3.2 6.4 0.00 0.00 0.00 73 1010.5
20260904210433 32 0 3.2 8.0 0.00 0.00 0.00 72 1010.5
20260904210333 32 0 3.2 8.0 0.00 0.00 0.00 72 1010.4
20260904210231 32 0 4.8 8.0 0.00 0.00 0.00 72 1010.4
20260904210131 32 0 4.8 8.0 0.00 0.00 0.00 72 1010.5
20260904210033 32 0 4.8 8.0 0.00 0.00 0.00 72 1010.5
20260904205930 32 0 4.8 8.0 0.00 0.00 0.00 72 1010.6
20260904205830 32 0 4.8 8.0 0.00 0.00 0.00 72 1010.6
20260904205732 32 0 4.8 8.0 0.00 0.00 0.00 72 1010.6
20260904205633 32 8 4.8 8.0 0.00 0.00 0.00 72 1010.7
20260904205531 32 8 3.2 8.0 0.00 0.00 0.00 72 1010.8
20260904205431 32 0 3.2 6.4 0.00 0.00 0.00 71 1010.6
20260904205333 32 0 3.2 6.4 0.00 0.00 0.00 71 1010.7
20260904205231 32 0 3.2 6.4 0.00 0.00 0.00 70 1010.7
20260904205132 32 0 4.8 6.4 0.00 0.00 0.00 71 1010.7
20260904205032 32 0 4.8 6.4 0.00 0.00 0.00 71 1010.7
20260904204932 32 0 4.8 6.4 0.00 0.00 0.00 71 1010.7
20260904204831 32 0 4.8 6.4 0.00 0.00 0.00 71 1010.8
20260904204731 32 316 4.8 6.4 0.00 0.00 0.00 70 1010.8
20260904204632 32 316 3.2 6.4 0.00 0.00 0.00 70 1010.7
20260904204532 32 316 3.2 6.4 0.00 0.00 0.00 70 1010.7
20260904204431 32 316 4.8 6.4 0.00 0.00 0.00 71 1010.8
20260904204330 32 314 4.8 6.4 0.00 0.00 0.00 71 1010.9
20260904204227 32 314 3.2 6.4 0.00 0.00 0.00 71 1010.8
20260904204125 32 314 1.6 6.4 0.00 0.00 0.00 71 1010.9
20260904204025 32 314 1.6 6.4 0.00 0.00 0.00 71 1010.9
20260904203924 32 314 4.8 6.4 0.00 0.00 0.00 71 1010.8
20260904203824 32 314 4.8 6.4 0.00 0.00 0.00 71 1010.9
20260904203723 32 314 4.8 6.4 0.00 0.00 0.00 71 1010.9
20260904203622 32 345 3.2 6.4 0.00 0.00 0.00 71 1011.0
20260904203521 32 0 3.2 4.8 0.00 0.00 0.00 70 1010.9
20260904203419 32 1 3.2 4.8 0.00 0.00 0.00 69 1010.9
20260904203317 32 0 3.2 4.8 0.00 0.00 0.00 69 1010.9
20260904203216 32 0 3.2 4.8 0.00 0.00 0.00 69 1010.9
20260904203110 33 0 1.6 6.4 0.00 0.00 0.00 70 1010.9
20260904203010 32 0 1.6 6.4 0.00 0.00 0.00 69 1011.0
20260904202909 32 0 1.6 8.0 0.00 0.00 0.00 69 1011.0
20260904202807 32 0 1.6 8.0 0.00 0.00 0.00 68 1011.0
20260904202705 32 49 3.2 8.0 0.00 0.00 0.00 68 1011.0
20260904202602 32 49 1.6 8.0 0.00 0.00 0.00 69 1011.1
20260904202503 32 127 0.0 8.0 0.00 0.00 0.00 68 1011.1
20260904202403 32 141 1.6 9.7 0.00 0.00 0.00 67 1011.1
20260904202305 32 141 3.2 9.7 0.00 0.00 0.00 67 1011.2
20260904202202 33 141 4.8 9.7 0.00 0.00 0.00 67 1011.1
20260904202102 33 148 6.4 9.7 0.00 0.00 0.00 67 1011.1
20260904202004 33 118 6.4 14.5 0.00 0.00 0.00 67 1011.2
20260904201902 33 182 4.8 14.5 0.00 0.00 0.00 67 1011.1
20260904201802 33 200 3.2 14.5 0.00 0.00 0.00 67 1011.1
20260904201703 33 65 3.2 14.5 0.00 0.00 0.00 67 1011.2
20260904201603 33 61 4.8 14.5 0.00 0.00 0.00 66 1011.2
20260904201503 33 61 6.4 14.5 0.00 0.00 0.00 65 1011.2
20260904201402 33 86 4.8 14.5 0.00 0.00 0.00 65 1011.2
20260904201302 33 83 8.0 14.5 0.00 0.00 0.00 64 1011.2
20260904201202 34 96 9.7 14.5 0.00 0.00 0.00 64 1011.2
20260904201103 34 94 9.7 14.5 0.00 0.00 0.00 64 1011.2
20260904201004 34 80 4.8 14.5 0.00 0.00 0.00 64 1011.2
20260904200902 34 51 3.2 9.7 0.00 0.00 0.00 64 1011.2
20260904200803 34 345 3.2 9.7 0.00 0.00 0.00 65 1011.1
20260904200704 34 344 4.8 9.7 0.00 0.00 0.00 65 1011.2
20260904200602 34 343 4.8 9.7 0.00 0.00 0.00 65 1011.2
20260904200505 34 320 4.8 8.0 0.00 0.00 0.00 65 1011.1
20260904200403 34 330 6.4 8.0 0.00 0.00 0.00 65 1011.2
20260904200303 34 331 6.4 8.0 0.00 0.00 0.00 66 1011.1
20260904200202 33 317 6.4 8.0 0.00 0.00 0.00 66 1011.2
20260904200004 33 278 1.6 9.7 0.00 0.00 0.00 66 1011.1
20260904195902 33 4 0.0 9.7 0.00 0.00 0.00 66 1011.1
20260904195802 33 4 0.0 9.7 0.00 0.00 0.00 66 1011.2
20260904195702 33 27 1.6 9.7 0.00 0.00 0.00 66 1011.2
20260904195603 33 28 3.2 9.7 0.00 0.00 0.00 67 1011.2
20260904195502 33 14 3.2 9.7 0.00 0.00 0.00 68 1011.2
20260904195402 33 79 4.8 9.7 0.00 0.00 0.00 67 1011.3
20260904195306 33 80 6.4 9.7 0.00 0.00 0.00 67 1011.2
20260904195202 33 102 6.4 9.7 0.00 0.00 0.00 67 1011.2
20260904195103 33 182 6.4 9.7 0.00 0.00 0.00 67 1011.2
20260904195003 33 131 6.4 9.7 0.00 0.00 0.00 67 1011.2
20260904194902 33 124 4.8 9.7 0.00 0.00 0.00 68 1011.3
20260904194802 33 97 4.8 8.0 0.00 0.00 0.00 68 1011.2
20260904194702 33 110 3.2 8.0 0.00 0.00 0.00 69 1011.3
20260904194603 33 13 1.6 8.0 0.00 0.00 0.00 69 1011.3
20260904194502 33 302 1.6 8.0 0.00 0.00 0.00 69 1011.4
20260904194402 33 302 0.0 8.0 0.00 0.00 0.00 69 1011.3
20260904194303 33 307 0.0 8.0 0.00 0.00 0.00 69 1011.4
20260904194202 33 307 1.6 8.0 0.00 0.00 0.00 70 1011.5
20260904194103 33 306 3.2 8.0 0.00 0.00 0.00 69 1011.5
20260904194002 33 306 6.4 8.0 0.00 0.00 0.00 71 1011.5
20260904193903 33 309 4.8 6.4 0.00 0.00 0.00 70 1011.6
20260904193802 33 312 4.8 8.0 0.00 0.00 0.00 72 1011.5
20260904193702 33 340 3.2 9.7 0.00 0.00 0.00 72 1011.6
20260904193603 32 345 1.6 9.7 0.00 0.00 0.00 72 1011.5
20260904193503 32 345 3.2 9.7 0.00 0.00 0.00 73 1011.5
20260904193404 32 345 3.2 9.7 0.00 0.00 0.00 73 1011.5
20260904193302 32 300 3.2 9.7 0.00 0.00 0.00 74 1011.5
20260904193203 32 312 3.2 9.7 0.00 0.00 0.00 73 1011.5
20260904193102 32 312 4.8 11.3 0.00 0.00 0.00 74 1011.5
20260904193003 32 312 4.8 11.3 0.00 0.00 0.00 74 1011.4
20260904192903 32 279 6.4 11.3 0.00 0.00 0.00 75 1011.5
20260904192802 32 248 6.4 11.3 0.00 0.00 0.00 75 1011.6
20260904192702 31 264 6.4 11.3 0.00 0.00 0.00 76 1011.6
20260904192603 31 264 6.4 11.3 0.00 0.00 0.00 76 1011.7
20260904192502 31 264 6.4 11.3 0.00 0.00 0.00 76 1011.7
20260904192402 31 264 6.4 11.3 0.00 0.00 0.00 76 1011.6
20260904192306 31 264 6.4 11.3 0.00 0.00 0.00 76 1011.7
20260904192203 31 258 6.4 11.3 0.00 0.00 0.00 77 1011.7
20260904192103 31 219 6.4 11.3 0.00 0.00 0.00 77 1011.7
20260904192003 31 241 8.0 11.3 0.00 0.00 0.00 76 1011.7
20260904191903 31 278 6.4 11.3 0.00 0.00 0.00 76 1011.7
20260904191804 31 268 6.4 11.3 0.00 0.00 0.00 76 1011.8
20260904191704 31 285 6.4 11.3 0.00 0.00 0.00 77 1011.8
20260904191602 31 266 4.8 16.1 0.00 0.00 0.00 76 1011.8
20260904191504 31 295 4.8 16.1 0.00 0.00 0.00 76 1011.8
20260904191402 31 274 4.8 16.1 0.00 0.00 0.00 76 1011.8
20260904191302 31 295 6.4 16.1 0.00 0.00 0.00 77 1011.8
20260904191203 31 259 8.0 16.1 0.00 0.00 0.00 78 1011.8
20260904191103 30 309 8.0 16.1 0.00 0.00 0.00 79 1012.0
20260904191003 30 329 8.0 16.1 0.00 0.00 0.00 78 1011.9
20260904190902 30 313 8.0 16.1 0.00 0.00 0.00 78 1012.0
20260904190803 30 317 9.7 16.1 0.00 0.00 0.00 79 1012.0
20260904190703 30 300 9.7 16.1 0.00 0.00 0.00 79 1011.9
20260904190603 30 316 8.0 14.5 0.00 0.00 0.00 79 1012.0
20260904190504 30 283 8.0 11.3 0.00 0.00 0.00 80 1012.0
20260904190402 30 288 8.0 11.3 0.00 0.00 0.00 81 1012.1
20260904190301 30 288 8.0 11.3 0.00 0.00 0.00 80 1012.1
20260904190200 29 293 8.0 9.7 0.00 0.00 0.00 81 1012.1
20260904190101 29 298 6.4 14.5 0.00 0.00 0.00 82 1012.2
20260904185958 29 279 4.8 14.5 0.00 0.00 0.00 82 1012.2
20260904185859 29 298 6.4 14.5 0.00 0.00 0.00 82 1012.3
20260904185759 29 298 8.0 14.5 0.00 0.00 0.00 82 1012.3
20260904185659 29 300 8.0 14.5 0.00 0.00 0.00 83 1012.3
20260904185559 29 300 8.0 14.5 0.00 0.00 0.00 83 1012.3
20260904185459 29 0 6.4 14.5 0.00 0.00 0.00 83 1012.3
20260904185359 29 0 6.4 14.5 0.00 0.00 0.00 84 1012.2
20260904185258 29 0 6.4 14.5 0.00 0.00 0.00 83 1012.2
20260904185200 28 0 8.0 14.5 0.00 0.00 0.00 85 1012.3
20260904185058 28 0 6.4 14.5 0.00 0.00 0.00 85 1012.3
20260904184958 28 0 8.0 14.5 0.00 0.00 0.00 83 1012.4
20260904184857 28 155 9.7 14.5 0.00 0.00 0.00 81 1012.4
20260904184759 28 295 9.7 14.5 0.00 0.00 0.00 80 1012.5
20260904184657 28 302 9.7 14.5 0.00 0.00 0.00 80 1012.5
20260904184557 29 299 8.0 14.5 0.00 0.00 0.00 80 1012.5
20260904184458 29 281 8.0 14.5 0.00 0.00 0.00 79 1012.5
20260904184357 29 298 8.0 14.5 0.00 0.00 0.00 79 1012.5
20260904184257 29 289 9.7 14.5 0.00 0.00 0.00 78 1012.6
20260904184157 29 298 9.7 14.5 0.00 0.00 0.00 78 1012.6
20260904184059 29 295 8.0 14.5 0.00 0.00 0.00 78 1012.5
20260904183958 29 307 9.7 14.5 0.00 0.00 0.00 78 1012.5
20260904183857 29 300 9.7 14.5 0.00 0.00 0.00 77 1012.6
20260904183759 29 292 9.7 14.5 0.00 0.00 0.00 77 1012.5
20260904183658 29 293 8.0 14.5 0.00 0.00 0.00 76 1012.6
20260904183558 29 305 6.4 11.3 0.00 0.00 0.00 77 1012.5
20260904183459 29 302 6.4 14.5 0.00 0.00 0.00 76 1012.6
20260904183357 29 310 6.4 14.5 0.00 0.00 0.00 76 1012.6
20260904183257 29 312 6.4 14.5 0.00 0.00 0.00 76 1012.6
20260904183157 29 293 6.4 14.5 0.00 0.00 0.00 76 1012.6
20260904183059 29 293 8.0 16.1 0.00 0.00 0.00 76 1012.5
20260904182957 29 317 6.4 16.1 0.00 0.00 0.00 76 1012.6
20260904182859 29 326 8.0 16.1 0.00 0.00 0.00 76 1012.7
20260904182759 29 313 8.0 17.7 0.00 0.00 0.00 76 1012.7
20260904182658 29 313 8.0 17.7 0.00 0.00 0.00 76 1012.7
20260904182557 29 286 8.0 17.7 0.00 0.00 0.00 76 1012.7
20260904182457 29 262 8.0 17.7 0.00 0.00 0.00 76 1012.8
20260904182359 30 314 8.0 17.7 0.00 0.00 0.00 76 1012.8
20260904182256 30 286 9.7 17.7 0.00 0.00 0.00 75 1012.9
20260904182157 30 309 11.3 17.7 0.00 0.00 0.00 75 1012.9
20260904182058 30 289 9.7 17.7 0.00 0.00 0.00 75 1012.9
20260904181957 30 309 11.3 17.7 0.00 0.00 0.00 74 1013.0
20260904181857 30 324 11.3 24.1 0.00 0.00 0.00 74 1013.0
20260904181757 30 275 9.7 24.1 0.00 0.00 0.00 74 1013.1
20260904181658 30 292 8.0 24.1 0.00 0.00 0.00 75 1013.1
20260904181600 30 259 8.0 24.1 0.00 0.00 0.00 75 1013.1
20260904181456 30 276 8.0 24.1 0.00 0.00 0.00 74 1013.1
20260904181358 30 268 9.7 24.1 0.00 0.00 0.00 73 1013.1
20260904181257 30 243 9.7 24.1 0.00 0.00 0.00 73 1013.1
20260904181158 31 285 12.9 24.1 0.00 0.00 0.00 71 1013.2
20260904181058 31 219 16.1 24.1 0.00 0.00 0.00 68 1013.1
20260904180958 32 241 16.1 24.1 0.00 0.00 0.00 68 1013.1
20260904180857 33 243 9.7 20.9 0.00 0.00 0.00 67 1013.1
20260904180756 33 247 4.8 9.7 0.00 0.00 0.00 68 1013.1
20260904180658 33 3 3.2 9.7 0.00 0.00 0.00 68 1013.1
20260904180558 33 18 4.8 9.7 0.00 0.00 0.00 68 1013.1
20260904180456 33 18 6.4 9.7 0.00 0.00 0.00 67 1013.0
20260904180357 33 89 6.4 9.7 0.00 0.00 0.00 67 1013.0
20260904180257 33 73 3.2 9.7 0.00 0.00 0.00 68 1013.0
20260904180156 33 71 1.6 9.7 0.00 0.00 0.00 68 1012.9
20260904180056 33 87 3.2 11.3 0.00 0.00 0.00 67 1013.0
20260904175958 33 87 6.4 14.5 0.00 0.00 0.00 68 1013.0
20260904175856 33 145 6.4 14.5 0.00 0.00 0.00 68 1013.0
20260904175757 33 85 4.8 16.1 0.00 0.00 0.00 69 1013.1
20260904175657 32 134 1.6 16.1 0.00 0.00 0.00 71 1013.0
20260904175557 32 89 0.0 16.1 0.00 0.00 0.00 71 1013.0
20260904175457 32 89 3.2 16.1 0.00 0.00 0.00 72 1013.0
20260904175357 32 87 8.0 16.1 0.00 0.00 0.00 71 1013.0
20260904175258 32 124 9.7 16.1 0.00 0.00 0.00 72 1013.0
20260904175157 33 152 9.7 16.1 0.00 0.00 0.00 72 1013.0
20260904175056 33 75 9.7 16.1 0.00 0.00 0.00 72 1012.9
20260904174957 33 73 11.3 16.1 0.00 0.00 0.00 72 1012.9
20260904174852 33 56 11.3 16.1 0.00 0.00 0.00 72 1012.8
20260904174749 33 63 9.7 16.1 0.00 0.00 0.00 73 1012.8
20260904174648 32 47 8.0 11.3 0.00 0.00 0.00 74 1012.8
20260904174548 32 85 8.0 11.3 0.00 0.00 0.00 74 1012.9
20260904174444 32 109 8.0 11.3 0.00 0.00 0.00 74 1012.8
20260904174345 32 71 8.0 14.5 0.00 0.00 0.00 74 1012.8
20260904174243 32 92 6.4 14.5 0.00 0.00 0.00 74 1012.8
20260904174139 32 100 8.0 14.5 0.00 0.00 0.00 75 1012.9
20260904174035 32 100 8.0 19.3 0.00 0.00 0.00 75 1012.8
20260904173934 32 66 6.4 19.3 0.00 0.00 0.00 76 1012.8
20260904173833 32 62 6.4 19.3 0.00 0.00 0.00 77 1012.8
20260904173732 31 14 6.4 19.3 0.00 0.00 0.00 77 1012.8
20260904173631 31 49 8.0 19.3 0.00 0.00 0.00 77 1012.8
20260904173533 31 99 9.7 19.3 0.00 0.00 0.00 77 1012.9
20260904173431 31 94 9.7 19.3 0.00 0.00 0.00 78 1012.9
20260904173331 31 66 9.7 19.3 0.00 0.00 0.00 78 1012.9
20260904173233 31 82 11.3 19.3 0.00 0.00 0.00 78 1013.0
20260904173131 31 97 12.9 19.3 0.00 0.00 0.00 79 1012.9
20260904173031 31 66 11.3 16.1 0.00 0.00 0.00 80 1012.9
20260904172930 31 86 9.7 16.1 0.00 0.00 0.00 80 1012.9
20260904172833 31 96 9.7 16.1 0.00 0.00 0.00 81 1012.9
20260904172733 30 133 8.0 16.1 0.00 0.00 0.00 81 1012.9
20260904172631 30 90 8.0 16.1 0.00 0.00 0.00 82 1012.9
20260904172532 30 116 8.0 16.1 0.00 0.00 0.00 82 1012.9
20260904172431 30 75 8.0 16.1 0.00 0.00 0.00 82 1012.9
20260904172330 30 103 11.3 16.1 0.00 0.00 0.00 81 1013.0
20260904172232 30 118 12.9 16.1 0.00 0.00 0.00 81 1013.0
20260904172131 30 118 11.3 16.1 0.00 0.00 0.00 81 1013.1
20260904172031 30 117 9.7 14.5 0.00 0.00 0.00 81 1013.1
20260904171932 30 93 9.7 11.3 0.00 0.00 0.00 81 1013.2
20260904171833 30 104 8.0 11.3 0.00 0.00 0.00 81 1013.3
20260904171732 30 113 8.0 11.3 0.00 0.00 0.00 81 1013.3
20260904171631 30 109 8.0 11.3 0.00 0.00 0.00 81 1013.3
20260904171532 30 107 6.4 11.3 0.00 0.00 0.00 82 1013.3
20260904171432 30 114 6.4 11.3 0.00 0.00 0.00 82 1013.3
20260904171333 30 99 6.4 11.3 0.00 0.00 0.00 82 1013.3
20260904171231 30 145 6.4 11.3 0.00 0.00 0.00 82 1013.3
20260904171132 30 109 6.4 11.3 0.00 0.00 0.00 82 1013.3
20260904171031 30 82 6.4 11.3 0.00 0.00 0.00 81 1013.3
20260904170931 30 76 8.0 11.3 0.00 0.00 0.00 80 1013.3
20260904170833 30 85 8.0 11.3 0.00 0.00 0.00 81 1013.3
20260904170732 30 61 8.0 14.5 0.00 0.00 0.00 81 1013.3
20260904170632 30 75 9.7 14.5 0.00 0.00 0.00 82 1013.3
20260904170531 30 102 6.4 14.5 0.00 0.00 0.00 82 1013.2
20260904170432 30 100 4.8 14.5 0.00 0.00 0.00 82 1013.2
20260904170331 30 102 6.4 14.5 0.00 0.00 0.00 82 1013.2
20260904170231 30 86 6.4 14.5 0.00 0.00 0.00 82 1013.1
20260904170130 30 113 6.4 14.5 0.00 0.00 0.00 82 1013.1
20260904170032 30 82 6.4 14.5 0.00 0.00 0.00 82 1013.1
20260904165932 30 106 6.4 14.5 0.00 0.00 0.00 82 1013.2
20260904165833 30 110 8.0 14.5 0.00 0.00 0.00 81 1013.1
20260904165732 30 110 8.0 14.5 0.00 0.00 0.00 82 1013.1
20260904165632 30 113 9.7 14.5 0.00 0.00 0.00 82 1013.0
20260904165531 30 140 9.7 14.5 0.00 0.00 0.00 82 1013.1
20260904165433 30 121 8.0 16.1 0.00 0.00 0.00 83 1013.1
20260904165331 30 117 8.0 16.1 0.00 0.00 0.00 83 1013.1
20260904165231 30 90 8.0 16.1 0.00 0.00 0.00 83 1013.0
20260904165133 30 124 8.0 16.1 0.00 0.00 0.00 83 1013.0
20260904165032 30 94 6.4 16.1 0.00 0.00 0.00 84 1013.0
20260904164931 30 152 8.0 16.1 0.00 0.00 0.00 84 1013.0
20260904164831 30 158 8.0 16.1 0.00 0.00 0.00 84 1013.0
20260904164732 30 113 8.0 16.1 0.00 0.00 0.00 84 1013.0
20260904164632 30 104 8.0 16.1 0.00 0.00 0.00 84 1013.1
20260904164531 30 120 8.0 16.1 0.00 0.00 0.00 85 1013.1
20260904164432 30 86 8.0 14.5 0.00 0.00 0.00 85 1013.1
20260904164331 30 110 8.0 14.5 0.00 0.00 0.00 85 1013.1
20260904164231 30 79 8.0 14.5 0.00 0.00 0.00 85 1013.2
20260904164132 30 142 9.7 14.5 0.00 0.00 0.00 85 1013.2
20260904164032 30 110 9.7 14.5 0.00 0.00 0.00 85 1013.2
20260904163931 30 117 8.0 16.1 0.00 0.00 0.00 85 1013.1
20260904163831 30 128 8.0 16.1 0.00 0.00 0.00 84 1013.0
20260904163733 30 104 8.0 16.1 0.00 0.00 0.00 84 1013.1
20260904163631 30 102 9.7 16.1 0.00 0.00 0.00 84 1013.1
20260904163531 30 106 9.7 16.1 0.00 0.00 0.00 83 1013.1
20260904163433 30 104 9.7 16.1 0.00 0.00 0.00 84 1013.1
20260904163333 30 110 9.7 16.1 0.00 0.00 0.00 83 1013.0
20260904163231 30 154 9.7 16.1 0.00 0.00 0.00 83 1013.1
20260904163131 30 113 11.3 16.1 0.00 0.00 0.00 83 1013.0
20260904163032 30 89 9.7 16.1 0.00 0.00 0.00 83 1013.0
20260904162931 30 118 6.4 16.1 0.00 0.00 0.00 84 1012.9
20260904162831 30 147 6.4 16.1 0.00 0.00 0.00 84 1013.0
20260904162733 30 166 8.0 16.1 0.00 0.00 0.00 84 1013.0
20260904162632 30 97 8.0 16.1 0.00 0.00 0.00 84 1013.0
20260904162531 30 102 9.7 16.1 0.00 0.00 0.00 84 1013.0
20260904162431 30 116 9.7 16.1 0.00 0.00 0.00 84 1013.1
20260904162331 30 124 9.7 16.1 0.00 0.00 0.00 83 1013.1
20260904162232 30 103 11.3 16.1 0.00 0.00 0.00 84 1013.1
20260904162132 30 131 9.7 16.1 0.00 0.00 0.00 84 1013.1
20260904162032 30 116 8.0 16.1 0.00 0.00 0.00 84 1013.1
20260904161931 30 107 9.7 16.1 0.00 0.00 0.00 84 1013.1
20260904161832 30 93 9.7 16.1 0.00 0.00 0.00 84 1013.1
20260904161733 30 92 9.7 16.1 0.00 0.00 0.00 84 1013.1
20260904161632 30 96 9.7 16.1 0.00 0.00 0.00 84 1013.0
20260904161532 30 90 9.7 16.1 0.00 0.00 0.00 85 1013.0
20260904161431 30 96 8.0 16.1 0.00 0.00 0.00 85 1013.0
20260904161332 30 86 8.0 16.1 0.00 0.00 0.00 85 1013.1
20260904161231 30 107 6.4 16.1 0.00 0.00 0.00 85 1013.0
20260904161131 30 102 6.4 16.1 0.00 0.00 0.00 85 1013.1
20260904161032 30 107 6.4 16.1 0.00 0.00 0.00 85 1013.0
20260904160932 30 102 6.4 16.1 0.00 0.00 0.00 85 1013.0
20260904160832 30 110 8.0 16.1 0.00 0.00 0.00 85 1013.1
20260904160731 30 124 9.7 16.1 0.00 0.00 0.00 85 1013.0
20260904160633 30 114 9.7 16.1 0.00 0.00 0.00 85 1013.1
20260904160532 30 113 9.7 16.1 0.00 0.00 0.00 85 1013.1
20260904160431 30 96 8.0 14.5 0.00 0.00 0.00 85 1013.0
20260904160331 30 113 8.0 14.5 0.00 0.00 0.00 85 1013.1
20260904160231 30 96 6.4 14.5 0.00 0.00 0.00 85 1013.0
20260904160131 30 104 6.4 14.5 0.00 0.00 0.00 85 1013.0
20260904160032 30 109 8.0 14.5 0.00 0.00 0.00 85 1013.0
20260904155931 30 103 8.0 14.5 0.00 0.00 0.00 85 1013.1
20260904155831 30 104 6.4 14.5 0.00 0.00 0.00 85 1013.1
20260904155732 30 106 4.8 11.3 0.00 0.00 0.00 85 1013.0
20260904155633 30 99 6.4 11.3 0.00 0.00 0.00 85 1013.1
20260904155531 30 117 6.4 11.3 0.00 0.00 0.00 85 1013.1
20260904155431 30 125 4.8 11.3 0.00 0.00 0.00 85 1013.1
20260904155334 30 92 4.8 11.3 0.00 0.00 0.00 85 1013.0
20260904155232 30 106 4.8 11.3 0.00 0.00 0.00 85 1013.0
20260904155132 30 110 4.8 11.3 0.00 0.00 0.00 85 1013.1
20260904155032 30 103 6.4 11.3 0.00 0.00 0.00 85 1013.1
20260904154930 30 85 9.7 11.3 0.00 0.00 0.00 85 1013.1
20260904154831 30 93 9.7 11.3 0.00 0.00 0.00 85 1013.1
20260904154731 30 85 8.0 11.3 0.00 0.00 0.00 85 1013.2
20260904154632 30 138 6.4 11.3 0.00 0.00 0.00 85 1013.1
20260904154531 30 97 6.4 11.3 0.00 0.00 0.00 85 1013.2
20260904154432 30 89 6.4 11.3 0.00 0.00 0.00 85 1013.1
20260904154330 30 87 4.8 11.3 0.00 0.00 0.00 85 1013.1
20260904154231 30 97 3.2 11.3 0.00 0.00 0.00 85 1013.0
20260904154132 30 123 3.2 11.3 0.00 0.00 0.00 85 1013.0
20260904154034 30 137 6.4 11.3 0.00 0.00 0.00 85 1013.0
20260904153932 30 109 8.0 11.3 0.00 0.00 0.00 84 1013.0
20260904153832 30 89 8.0 11.3 0.00 0.00 0.00 85 1013.0
20260904153732 30 83 4.8 8.0 0.00 0.00 0.00 85 1012.9
20260904153633 30 96 3.2 8.0 0.00 0.00 0.00 85 1013.0
20260904153532 30 96 4.8 8.0 0.00 0.00 0.00 84 1013.0
20260904153432 30 96 6.4 8.0 0.00 0.00 0.00 84 1013.0
20260904153331 30 110 6.4 8.0 0.00 0.00 0.00 85 1012.9
20260904153232 30 100 6.4 8.0 0.00 0.00 0.00 85 1012.9
20260904153132 30 79 6.4 8.0 0.00 0.00 0.00 85 1012.9
20260904153031 30 73 6.4 8.0 0.00 0.00 0.00 85 1012.9
20260904152932 30 73 6.4 8.0 0.00 0.00 0.00 84 1012.8
20260904152832 30 76 6.4 8.0 0.00 0.00 0.00 84 1012.9
20260904152731 30 59 3.2 6.4 0.00 0.00 0.00 84 1012.8
20260904152631 30 58 1.6 6.4 0.00 0.00 0.00 85 1012.7
20260904152531 30 58 1.6 6.4 0.00 0.00 0.00 85 1012.7
20260904152431 30 58 3.2 6.4 0.00 0.00 0.00 84 1012.7
20260904152331 30 58 4.8 6.4 0.00 0.00 0.00 84 1012.7
20260904152232 30 59 3.2 8.0 0.00 0.00 0.00 84 1012.7
20260904152108 30 61 1.6 9.7 0.00 0.00 0.00 85 1012.6
20260904152009 30 118 0.0 9.7 0.00 0.00 0.00 84 1012.6
20260904151908 30 118 1.6 9.7 0.00 0.00 0.00 84 1012.6
20260904151806 30 118 3.2 11.3 0.00 0.00 0.00 84 1012.6
20260904151703 30 116 3.2 11.3 0.00 0.00 0.00 85 1012.7
20260904151603 30 94 3.2 11.3 0.00 0.00 0.00 85 1012.6
20260904151502 30 93 4.8 11.3 0.00 0.00 0.00 84 1012.7
20260904151402 30 94 8.0 11.3 0.00 0.00 0.00 84 1012.7
20260904151302 30 94 8.0 11.3 0.00 0.00 0.00 85 1012.7
20260904151202 30 87 8.0 11.3 0.00 0.00 0.00 85 1012.7
20260904151100 30 111 8.0 11.3 0.00 0.00 0.00 86 1012.7
20260904151000 30 56 8.0 11.3 0.00 0.00 0.00 85 1012.7
20260904150856 30 83 6.4 9.7 0.00 0.00 0.00 86 1012.8
20260904150752 30 86 6.4 9.7 0.00 0.00 0.00 86 1012.7
20260904150652 30 85 6.4 9.7 0.00 0.00 0.00 87 1012.8
20260904150554 30 71 4.8 9.7 0.00 0.00 0.00 87 1012.8
20260904150452 30 69 6.4 9.7 0.00 0.00 0.00 87 1012.8
20260904150352 29 76 8.0 9.7 0.00 0.00 0.00 87 1012.8
20260904150254 29 76 8.0 9.7 0.00 0.00 0.00 87 1012.7
20260904150153 29 66 6.4 9.7 0.00 0.00 0.00 87 1012.8
20260904150052 29 94 8.0 11.3 0.00 0.00 0.00 86 1012.7
20260904145952 29 76 6.4 11.3 0.00 0.00 0.00 86 1012.7
20260904145854 29 94 6.4 11.3 0.00 0.00 0.00 86 1012.7
20260904145752 29 103 6.4 11.3 0.00 0.00 0.00 86 1012.7
20260904145652 29 86 8.0 11.3 0.00 0.00 0.00 86 1012.8
20260904145554 29 83 8.0 11.3 0.00 0.00 0.00 86 1012.8
20260904145452 29 94 8.0 11.3 0.00 0.00 0.00 86 1012.7
20260904145353 29 90 8.0 11.3 0.00 0.00 0.00 85 1012.8
20260904145255 30 85 8.0 11.3 0.00 0.00 0.00 85 1012.7
20260904145152 30 93 9.7 11.3 0.00 0.00 0.00 85 1012.7
20260904145052 30 89 8.0 11.3 0.00 0.00 0.00 85 1012.7
20260904144953 30 80 8.0 11.3 0.00 0.00 0.00 85 1012.7
20260904144854 30 80 8.0 11.3 0.00 0.00 0.00 85 1012.6
20260904144753 30 89 8.0 11.3 0.00 0.00 0.00 84 1012.7
20260904144653 30 83 8.0 11.3 0.00 0.00 0.00 84 1012.7
20260904144555 30 55 6.4 11.3 0.00 0.00 0.00 84 1012.7
20260904144453 30 61 6.4 11.3 0.00 0.00 0.00 84 1012.6
20260904144352 30 73 6.4 11.3 0.00 0.00 0.00 84 1012.6
20260904144252 30 58 6.4 11.3 0.00 0.00 0.00 84 1012.6
20260904144153 30 51 6.4 11.3 0.00 0.00 0.00 84 1012.7
20260904144052 30 45 6.4 11.3 0.00 0.00 0.00 84 1012.6
20260904143953 30 24 3.2 9.7 0.00 0.00 0.00 84 1012.7
20260904143852 30 63 4.8 9.7 0.00 0.00 0.00 84 1012.7
20260904143752 30 102 6.4 9.7 0.00 0.00 0.00 84 1012.6
20260904143653 30 42 6.4 8.0 0.00 0.00 0.00 84 1012.6
20260904143552 30 79 6.4 8.0 0.00 0.00 0.00 84 1012.7
20260904143454 30 76 6.4 9.7 0.00 0.00 0.00 84 1012.7
20260904143353 30 7 6.4 9.7 0.00 0.00 0.00 84 1012.7
20260904143251 30 55 6.4 9.7 0.00 0.00 0.00 84 1012.6
20260904143153 30 39 6.4 9.7 0.00 0.00 0.00 84 1012.6
20260904143053 30 38 4.8 9.7 0.00 0.00 0.00 85 1012.6
20260904142953 30 8 3.2 9.7 0.00 0.00 0.00 85 1012.6
20260904142854 30 34 4.8 9.7 0.00 0.00 0.00 86 1012.6
20260904142751 30 34 6.4 9.7 0.00 0.00 0.00 86 1012.6
20260904142651 30 34 6.4 9.7 0.00 0.00 0.00 86 1012.6
20260904142550 30 32 4.8 9.7 0.00 0.00 0.00 86 1012.5
20260904142452 30 37 4.8 8.0 0.00 0.00 0.00 86 1012.5
20260904142352 30 90 4.8 9.7 0.00 0.00 0.00 86 1012.5
20260904142252 30 79 3.2 9.7 0.00 0.03 0.00 86 1012.5
20260904142152 29 79 4.8 9.7 0.00 0.03 0.00 86 1012.5
20260904142053 29 78 4.8 9.7 0.00 0.03 0.00 86 1012.4
20260904141951 29 78 4.8 9.7 0.00 0.03 0.00 87 1012.4
20260904141851 29 82 6.4 9.7 0.00 0.03 0.00 87 1012.5
20260904141752 29 97 6.4 9.7 0.00 0.05 0.00 87 1012.5
20260904141653 29 102 6.4 9.7 0.00 0.05 0.00 87 1012.5
20260904141549 29 76 6.4 9.7 0.00 0.05 0.00 88 1012.5
20260904141448 29 93 4.8 9.7 0.00 0.05 0.00 88 1012.5
20260904141346 29 68 3.2 8.0 0.00 0.05 0.00 88 1012.5
20260904141245 29 68 1.6 8.0 0.00 0.05 0.00 88 1012.6
20260904141144 29 66 1.6 8.0 0.00 0.05 0.00 89 1012.5
20260904141038 29 61 3.2 8.0 0.00 0.05 0.00 90 1012.4
20260904140938 28 61 4.8 8.0 0.00 0.05 0.00 89 1012.4
20260904140835 28 59 3.2 8.0 0.00 0.05 0.00 90 1012.5
20260904140734 28 49 4.8 8.0 0.00 0.05 0.00 90 1012.5
20260904140633 28 97 4.8 8.0 0.00 0.05 0.00 90 1012.4
20260904140530 28 109 6.4 8.0 0.00 0.05 0.00 90 1012.5
20260904140431 28 87 6.4 8.0 0.00 0.05 0.00 90 1012.4
20260904140331 28 82 6.4 8.0 0.00 0.05 0.00 90 1012.4
20260904140231 28 78 6.4 9.7 0.00 0.05 0.00 90 1012.4
20260904140133 28 58 6.4 9.7 0.00 0.05 0.00 90 1012.4
20260904140032 28 65 6.4 9.7 0.00 0.05 0.00 90 1012.4
20260904135932 28 63 6.4 9.7 0.00 0.05 0.00 91 1012.5
20260904135831 28 63 6.4 9.7 0.00 0.05 0.00 91 1012.4
20260904135732 28 62 6.4 9.7 0.00 0.05 0.00 91 1012.4
20260904135632 28 61 6.4 9.7 0.00 0.05 0.00 91 1012.5
20260904135531 28 28 4.8 9.7 0.00 0.05 0.00 91 1012.5
20260904135431 28 49 4.8 9.7 0.00 0.05 0.00 91 1012.5
20260904135333 28 55 4.8 9.7 0.00 0.05 0.00 91 1012.5
20260904135232 28 61 4.8 9.7 0.00 0.05 0.00 91 1012.5
20260904135133 28 65 6.4 9.7 0.00 0.05 0.00 91 1012.4
20260904135032 28 52 4.8 8.0 0.00 0.05 0.00 92 1012.4
20260904134931 28 42 3.2 6.4 0.00 0.05 0.00 92 1012.4
20260904134832 28 31 3.2 6.4 0.00 0.05 0.00 92 1012.3
20260904134731 28 16 1.6 8.0 0.00 0.05 0.00 92 1012.4
20260904134631 28 16 3.2 9.7 0.00 0.05 0.00 92 1012.4
20260904134531 28 16 3.2 9.7 0.00 0.05 0.00 92 1012.3
20260904134428 28 16 3.2 11.3 0.00 0.05 0.00 92 1012.3
20260904134327 28 16 4.8 11.3 0.00 0.05 0.00 93 1012.3
20260904134222 28 14 4.8 11.3 0.00 0.05 0.00 93 1012.3
20260904134122 28 13 3.2 11.3 0.00 0.05 0.00 93 1012.3
20260904134022 28 61 3.2 11.3 0.00 0.05 0.00 93 1012.4
20260904133921 28 61 4.8 11.3 0.00 0.05 0.00 93 1012.4
20260904133820 27 62 6.4 11.3 0.00 0.05 0.00 93 1012.3
20260904133718 27 61 6.4 11.3 0.00 0.05 0.00 93 1012.3
20260904133616 27 42 8.0 11.3 0.00 0.05 0.00 93 1012.3
20260904133516 27 51 8.0 11.3 0.00 0.05 0.00 93 1012.3
20260904133414 27 45 6.4 9.7 0.00 0.05 0.00 93 1012.3
20260904133313 27 41 6.4 9.7 0.00 0.05 0.00 93 1012.3
20260904133210 27 49 8.0 9.7 0.00 0.05 0.00 93 1012.3
20260904133110 27 41 6.4 8.0 0.00 0.05 0.00 93 1012.3
20260904133008 27 35 6.4 8.0 0.00 0.05 0.00 93 1012.3
20260904132906 27 21 6.4 8.0 0.00 0.05 0.00 93 1012.3
20260904132805 27 42 6.4 8.0 0.00 0.05 0.00 93 1012.3
20260904132704 27 42 6.4 8.0 0.00 0.05 0.00 93 1012.2
20260904132603 27 39 6.4 8.0 0.00 0.05 0.00 93 1012.3
20260904132503 27 51 6.4 8.0 0.00 0.05 0.00 93 1012.3
20260904132403 27 41 4.8 6.4 0.00 0.05 0.00 93 1012.2
20260904132306 27 39 4.8 6.4 0.00 0.05 0.00 93 1012.3
20260904132204 27 39 3.2 6.4 0.00 0.05 0.00 94 1012.3
20260904132103 27 39 3.2 6.4 0.00 0.05 0.00 94 1012.3
20260904132004 27 39 4.8 6.4 0.00 0.05 0.00 94 1012.3
20260904131902 27 39 3.2 6.4 0.00 0.05 0.00 94 1012.3
20260904131803 27 39 3.2 8.0 0.00 0.05 0.00 94 1012.2
20260904131703 27 39 3.2 8.0 0.00 0.05 0.00 94 1012.3
20260904131602 27 39 3.2 8.0 0.00 0.05 0.00 94 1012.3
20260904131503 27 39 3.2 8.0 0.00 0.05 0.00 94 1012.2
20260904131401 27 39 3.2 8.0 0.00 0.05 0.00 94 1012.2
20260904131303 27 39 4.8 8.0 0.00 0.05 0.00 94 1012.2
20260904131202 27 39 4.8 8.0 0.00 0.05 0.00 94 1012.2
20260904131102 27 39 6.4 8.0 0.00 0.05 0.00 94 1012.2
20260904131005 27 39 6.4 8.0 0.00 0.05 0.00 94 1012.2
20260904130903 27 39 3.2 8.0 0.00 0.05 0.00 94 1012.1
20260904130804 27 39 1.6 3.2 0.00 0.05 0.00 95 1012.1
20260904130702 27 39 1.6 3.2 0.00 0.05 0.00 95 1012.1
20260904130602 27 39 1.6 3.2 0.00 0.05 0.00 95 1012.1
20260904130504 27 39 1.6 3.2 0.00 0.05 0.00 95 1012.1
20260904130404 27 39 1.6 4.8 0.00 0.05 0.00 95 1012.1
20260904130303 27 39 1.6 6.4 0.00 0.05 0.00 95 1012.0
20260904130204 27 39 1.6 6.4 0.00 0.05 0.00 95 1012.0
20260904130004 27 39 0.0 6.4 0.00 0.05 0.00 95 1012.1
20260904125904 27 39 0.0 6.4 0.00 0.05 0.00 95 1012.1
20260904125803 27 39 0.0 6.4 0.00 0.05 0.00 95 1012.0
20260904125702 27 39 1.6 8.0 0.00 0.05 0.00 95 1012.1
20260904125603 27 25 3.2 8.0 0.00 0.05 0.00 95 1012.0
20260904125503 27 24 3.2 8.0 0.00 0.05 0.00 95 1012.1
20260904125401 27 24 4.8 8.0 0.00 0.05 0.00 95 1012.0
20260904125305 27 24 4.8 8.0 0.00 0.05 0.00 95 1012.1
20260904125204 27 25 4.8 8.0 0.00 0.05 0.00 95 1012.1
20260904125103 27 38 4.8 8.0 0.00 0.05 0.00 95 1012.0
20260904125003 27 38 4.8 8.0 0.00 0.05 0.00 95 1012.1
20260904124903 27 38 4.8 8.0 0.00 0.05 0.00 95 1012.0
20260904124802 27 37 6.4 8.0 0.00 0.05 0.00 95 1012.0
20260904124702 27 35 4.8 8.0 0.00 0.05 0.00 95 1012.0
20260904124603 27 32 4.8 6.4 0.00 0.05 0.00 95 1012.0
20260904124503 26 31 4.8 6.4 0.00 0.05 0.00 95 1012.0
20260904124403 26 31 4.8 6.4 0.00 0.05 0.00 95 1012.0
20260904124304 26 30 4.8 6.4 0.00 0.05 0.00 95 1012.0
20260904124202 26 51 4.8 6.4 0.00 0.05 0.00 95 1012.1
20260904124102 26 52 4.8 6.4 0.00 0.05 0.00 95 1012.0
20260904124003 26 52 6.4 6.4 0.00 0.05 0.00 95 1011.9
20260904123903 26 51 4.8 6.4 0.00 0.05 0.00 95 1011.9
20260904123801 26 52 4.8 6.4 0.00 0.05 0.00 95 1011.9
20260904123703 26 52 3.2 6.4 0.00 0.05 0.00 95 1011.8
20260904123604 26 54 4.8 6.4 0.00 0.05 0.00 95 1011.8
20260904123503 26 54 4.8 6.4 0.00 0.05 0.00 95 1011.8
20260904123402 26 54 4.8 6.4 0.00 0.05 0.00 95 1011.7
20260904123302 26 54 3.2 6.4 0.00 0.05 0.00 95 1011.7
20260904123204 26 66 3.2 4.8 0.00 0.05 0.00 95 1011.7
20260904123102 26 66 3.2 4.8 0.00 0.05 0.00 95 1011.6
20260904123004 26 68 3.2 4.8 0.00 0.05 0.00 95 1011.6
20260904122904 26 68 3.2 4.8 0.00 0.05 0.00 95 1011.6
20260904122804 26 68 3.2 4.8 0.00 0.05 0.00 95 1011.7
20260904122702 26 68 3.2 4.8 0.00 0.05 0.00 95 1011.6
20260904122603 26 68 3.2 4.8 0.00 0.05 0.00 95 1011.6
20260904122503 26 69 3.2 4.8 0.00 0.05 0.00 95 1011.5
20260904122403 26 69 3.2 3.2 0.00 0.05 0.00 95 1011.6
20260904122306 26 69 3.2 3.2 0.00 0.05 0.00 95 1011.5
20260904122203 26 69 1.6 3.2 0.00 0.05 0.00 95 1011.5
20260904122103 26 69 0.0 3.2 0.00 0.05 0.00 95 1011.5
20260904121959 26 69 0.0 4.8 0.00 0.05 0.00 95 1011.5
20260904121859 26 69 0.0 4.8 0.00 0.05 0.00 95 1011.4
20260904121758 26 69 0.0 4.8 0.00 0.05 0.00 95 1011.5
20260904121656 26 69 0.0 6.4 0.00 0.05 0.00 95 1011.5
20260904121554 26 69 0.0 6.4 0.00 0.05 0.00 95 1011.4
20260904121454 26 69 0.0 6.4 0.00 0.05 0.00 95 1011.4
20260904121351 26 69 0.0 6.4 0.00 0.05 0.00 95 1011.4
20260904121251 26 69 1.6 8.0 0.00 0.05 0.00 95 1011.3
20260904121148 26 69 3.2 8.0 0.00 0.05 0.00 95 1011.3
20260904121048 26 69 3.2 8.0 0.00 0.05 0.00 95 1011.3
20260904120948 26 69 3.2 8.0 0.00 0.05 0.00 95 1011.4
20260904120848 26 69 3.2 8.0 0.00 0.05 0.00 95 1011.4
20260904120749 26 69 3.2 8.0 0.00 0.05 0.00 95 1011.4
20260904120649 26 68 4.8 8.0 0.00 0.05 0.00 95 1011.3
20260904120549 26 68 4.8 8.0 0.00 0.05 0.00 95 1011.3
20260904120448 26 68 4.8 8.0 0.00 0.05 0.00 95 1011.3
20260904120348 26 66 4.8 8.0 0.00 0.05 0.00 95 1011.3
20260904120248 26 66 4.8 8.0 0.00 0.05 0.00 95 1011.4
20260904120148 26 65 4.8 8.0 0.00 0.05 0.00 95 1011.3
20260904120049 26 65 4.8 8.0 0.00 0.05 0.00 95 1011.4
20260904115948 26 63 4.8 8.0 0.00 0.05 0.00 95 1011.4
20260904115850 26 63 3.2 8.0 0.00 0.05 0.00 95 1011.4
20260904115749 26 58 0.0 0.0 0.00 0.08 0.00 95 1011.3
20260904115648 26 58 0.0 0.0 0.00 0.08 0.00 95 1011.3
20260904115549 26 58 0.0 0.0 0.00 0.08 0.00 95 1011.4
20260904115448 26 58 0.0 0.0 0.00 0.08 0.00 95 1011.3
20260904115348 26 58 0.0 0.0 0.00 0.08 0.00 95 1011.4
20260904115248 26 58 0.0 0.0 0.00 0.08 0.00 95 1011.3
20260904115149 26 58 0.0 0.0 0.00 0.08 0.00 95 1011.3
20260904115048 26 58 0.0 0.0 0.00 0.08 0.00 95 1011.3
20260904114948 26 58 0.0 0.0 0.00 0.08 0.00 95 1011.3
20260904114850 26 58 0.0 0.0 0.00 0.08 0.00 95 1011.2
20260904114749 26 58 0.0 0.0 0.00 0.08 0.00 95 1011.3
20260904114648 26 58 0.0 0.0 0.00 0.08 0.00 95 1011.3
20260904114548 26 58 0.0 0.0 0.00 0.08 0.00 95 1011.3
20260904114449 26 58 0.0 0.0 0.00 0.08 0.00 95 1011.3
20260904114349 26 58 0.0 0.0 0.00 0.08 0.00 95 1011.3
20260904114247 26 56 0.0 0.0 0.00 0.08 0.00 95 1011.2
20260904114149 26 58 0.0 0.0 0.00 0.08 0.00 95 1011.2
20260904114048 26 58 0.0 0.0 0.00 0.10 0.00 95 1011.2
20260904113949 26 58 0.0 0.0 0.00 0.10 0.00 95 1011.3
20260904113849 26 58 0.0 0.0 0.00 0.10 0.00 95 1011.2
20260904113748 26 58 0.0 0.0 0.00 0.10 0.00 95 1011.3
20260904113647 26 58 0.0 0.0 0.00 0.10 0.00 95 1011.3
20260904113548 26 58 0.0 0.0 0.00 0.10 0.00 95 1011.3
20260904113449 26 58 0.0 0.0 0.00 0.10 0.00 95 1011.3
20260904113348 26 58 0.0 0.0 0.00 0.10 0.00 95 1011.3
20260904113247 26 58 0.0 0.0 0.00 0.13 0.00 95 1011.4
20260904113149 26 58 0.0 0.0 0.00 0.13 0.00 95 1011.4
20260904113048 26 58 0.0 0.0 0.00 0.13 0.00 95 1011.4
20260904112947 26 58 0.0 0.0 0.00 0.15 0.00 95 1011.4
20260904112848 26 58 0.0 0.0 0.00 0.15 0.00 95 1011.3
20260904112749 26 58 0.0 0.0 0.00 0.15 0.00 95 1011.4
20260904112648 26 58 0.0 0.0 0.00 0.18 0.00 95 1011.3
20260904112547 26 58 0.0 0.0 0.00 0.18 0.00 95 1011.3
20260904112448 26 58 0.0 0.0 0.00 0.20 0.00 95 1011.3
20260904112333 26 58 0.0 0.0 0.00 0.23 0.00 95 1011.3
20260904112233 26 58 0.0 0.0 0.00 0.23 0.00 95 1011.3
20260904112130 26 58 0.0 0.0 0.00 0.25 0.00 95 1011.3
20260904112030 26 58 0.0 0.0 0.00 0.25 0.00 95 1011.2
20260904111933 26 58 0.0 0.0 0.00 0.28 0.00 95 1011.2
20260904111832 26 58 0.0 0.0 0.00 0.28 0.00 95 1011.2
20260904111731 26 58 0.0 0.0 0.00 0.30 0.00 95 1011.3
20260904111630 26 58 0.0 0.0 0.00 0.30 0.00 95 1011.3
20260904111527 26 58 0.0 0.0 0.00 0.30 0.00 95 1011.3
20260904111426 26 58 0.0 0.0 0.00 0.30 0.00 95 1011.2
20260904111325 26 58 0.0 0.0 0.00 0.33 0.00 95 1011.3
20260904111223 26 58 0.0 1.6 0.00 0.33 0.00 95 1011.2
20260904111122 26 58 0.0 4.8 0.00 0.33 0.00 95 1011.2
20260904111017 26 58 0.0 4.8 0.00 0.33 0.00 95 1011.3
20260904110917 26 58 0.0 4.8 0.00 0.33 0.00 95 1011.2
20260904110816 26 58 0.0 4.8 0.00 0.36 0.00 95 1011.3
20260904110713 26 58 0.0 4.8 0.00 0.36 0.00 95 1011.3
20260904110611 26 58 0.0 4.8 0.00 0.36 0.00 95 1011.3
20260904110510 26 58 0.0 4.8 0.00 0.36 0.00 95 1011.3
20260904110409 26 58 0.0 4.8 0.00 0.36 0.00 95 1011.3
20260904110306 26 58 1.6 4.8 0.00 0.36 0.00 95 1011.3
20260904110206 26 58 3.2 8.0 0.00 0.36 0.00 95 1011.3
20260904110104 26 58 1.6 8.0 0.00 0.36 0.00 95 1011.3
20260904110004 26 58 1.6 8.0 0.00 0.36 0.00 95 1011.3
20260904105903 26 58 3.2 8.0 0.00 0.36 0.00 95 1011.3
20260904105802 26 58 3.2 8.0 0.00 0.36 0.00 95 1011.3
20260904105704 26 58 3.2 8.0 0.00 0.36 0.00 95 1011.4
20260904105603 26 58 3.2 8.0 0.00 0.36 0.00 95 1011.3
20260904105504 26 58 3.2 8.0 0.00 0.36 0.00 95 1011.3
20260904105401 26 58 4.8 8.0 0.00 0.36 0.00 95 1011.2
20260904105305 26 58 6.4 8.0 0.00 0.36 0.00 95 1011.3
20260904105202 26 56 6.4 8.0 0.00 0.36 0.00 95 1011.3
20260904105104 26 82 4.8 8.0 0.00 0.36 0.00 95 1011.3
20260904105003 26 82 4.8 8.0 0.00 0.36 0.00 95 1011.4
20260904104904 26 82 4.8 8.0 0.00 0.36 0.00 95 1011.3
20260904104803 26 82 4.8 8.0 0.00 0.36 0.00 95 1011.3
20260904104702 26 68 4.8 8.0 0.00 0.36 0.00 95 1011.2
20260904104603 26 66 4.8 8.0 0.00 0.36 0.00 95 1011.2
20260904104502 26 66 4.8 8.0 0.00 0.36 0.00 95 1011.3
20260904104402 26 66 6.4 8.0 0.00 0.36 0.00 95 1011.2
20260904104304 26 65 4.8 8.0 0.00 0.36 0.00 95 1011.3
20260904104203 26 65 4.8 6.4 0.00 0.36 0.00 95 1011.2
20260904104102 26 65 4.8 6.4 0.00 0.36 0.00 95 1011.2
20260904104003 26 63 4.8 6.4 0.00 0.36 0.00 95 1011.3
20260904103903 26 63 4.8 6.4 0.00 0.36 0.00 95 1011.3
20260904103802 26 63 4.8 6.4 0.00 0.36 0.00 95 1011.2
20260904103702 26 54 3.2 6.4 0.00 0.36 0.00 95 1011.3
20260904103602 26 52 3.2 4.8 0.00 0.36 0.00 95 1011.3
20260904103502 26 52 3.2 4.8 0.00 0.36 0.00 95 1011.3
20260904103403 26 52 3.2 4.8 0.00 0.36 0.00 95 1011.3
20260904103303 26 52 3.2 4.8 0.00 0.36 0.00 95 1011.3
20260904103202 26 52 3.2 4.8 0.00 0.36 0.00 95 1011.3
20260904103102 26 52 3.2 4.8 0.00 0.36 0.00 95 1011.2
20260904103002 26 52 3.2 4.8 0.00 0.36 0.00 95 1011.2
20260904102903 26 52 3.2 4.8 0.00 0.36 0.00 95 1011.2
20260904102802 26 52 3.2 4.8 0.00 0.36 0.00 95 1011.2
20260904102704 26 52 3.2 6.4 0.00 0.36 0.00 95 1011.1
20260904102603 26 52 3.2 6.4 0.00 0.36 0.00 95 1011.1
20260904102503 26 52 3.2 6.4 0.00 0.36 0.00 95 1011.1
20260904102404 26 52 3.2 6.4 0.00 0.36 0.00 95 1011.1
20260904102301 26 52 3.2 6.4 0.00 0.36 0.00 95 1011.1
20260904102204 26 52 3.2 6.4 0.00 0.36 0.00 95 1011.0
20260904102103 26 52 3.2 6.4 0.00 0.36 0.00 95 1011.0
20260904102003 26 52 3.2 6.4 0.00 0.36 0.00 95 1011.0
20260904101903 26 54 3.2 6.4 0.00 0.36 0.00 95 1011.0
20260904101802 26 54 4.8 6.4 0.00 0.36 0.00 95 1011.0
20260904101702 26 75 3.2 6.4 0.00 0.36 0.00 95 1011.0
20260904101603 26 76 3.2 6.4 0.00 0.36 0.00 95 1010.9
20260904101503 26 76 3.2 6.4 0.00 0.36 0.00 95 1010.9
20260904101403 26 78 3.2 6.4 0.00 0.36 0.00 95 1011.0
20260904101303 26 78 3.2 6.4 0.00 0.36 0.00 95 1010.9
20260904101203 26 78 3.2 6.4 0.00 0.36 0.00 95 1011.0
20260904101103 26 78 3.2 4.8 0.00 0.36 0.00 95 1011.0
20260904101002 26 78 3.2 4.8 0.00 0.36 0.00 95 1011.0
20260904100903 26 79 0.0 4.8 0.00 0.36 0.00 95 1010.9
20260904100803 26 100 0.0 0.0 0.00 0.36 0.00 95 1010.9
20260904100703 26 102 0.0 0.0 0.00 0.36 0.00 95 1010.9
20260904100603 26 102 0.0 0.0 0.00 0.36 0.00 95 1010.9
20260904100504 26 102 0.0 0.0 0.00 0.36 0.00 95 1010.9
20260904100402 26 102 0.0 0.0 0.00 0.36 0.00 95 1010.8
20260904100302 26 102 0.0 0.0 0.00 0.36 0.00 95 1010.8
20260904100203 26 102 0.0 0.0 0.00 0.36 0.00 95 1010.9
20260904100004 26 102 0.0 0.0 0.00 0.36 0.00 95 1010.9
20260904095904 26 102 0.0 0.0 0.00 0.36 0.00 95 1010.8
20260904095804 26 102 0.0 0.0 0.00 0.36 0.00 95 1010.8
20260904095702 26 102 0.0 0.0 0.00 0.36 0.00 95 1010.9
20260904095602 26 102 0.0 0.0 0.00 0.36 0.00 95 1010.8
20260904095503 26 102 0.0 0.0 0.00 0.36 0.00 95 1010.8
20260904095402 26 102 0.0 0.0 0.00 0.36 0.00 95 1010.9
20260904095306 26 102 0.0 0.0 0.00 0.36 0.00 95 1010.7
20260904095205 26 102 0.0 0.0 0.00 0.36 0.00 95 1010.8
20260904095102 26 102 0.0 0.0 0.00 0.36 0.00 95 1010.8
20260904095002 26 102 0.0 0.0 0.00 0.36 0.00 95 1010.8
20260904094902 26 102 0.0 0.0 0.00 0.36 0.00 95 1010.8
20260904094802 26 102 0.0 0.0 0.00 0.36 0.00 95 1010.8
20260904094702 26 102 0.0 0.0 0.00 0.36 0.00 95 1010.8
20260904094604 26 102 0.0 0.0 0.00 0.36 0.00 95 1010.8
20260904094503 26 102 0.0 0.0 0.00 0.36 0.00 95 1010.7
20260904094402 26 102 0.0 0.0 0.00 0.36 0.00 95 1010.8
20260904094302 26 102 0.0 0.0 0.00 0.36 0.00 95 1010.8
20260904094203 26 102 0.0 0.0 0.00 0.36 0.00 95 1010.7
20260904094103 26 102 0.0 0.0 0.00 0.36 0.00 95 1010.7
20260904094003 26 102 0.0 0.0 0.00 0.36 0.00 95 1010.7
20260904093903 26 102 0.0 0.0 0.00 0.36 0.00 95 1010.7
20260904093803 26 102 0.0 0.0 0.00 0.36 0.00 95 1010.7
20260904093703 26 102 0.0 0.0 0.00 0.36 0.00 94 1010.7
20260904093602 26 102 0.0 0.0 0.00 0.36 0.00 95 1010.7
20260904093502 26 102 0.0 0.0 0.00 0.36 0.00 94 1010.8
20260904093402 26 102 0.0 0.0 0.00 0.36 0.00 94 1010.7
20260904093303 26 102 0.0 0.0 0.00 0.36 0.00 94 1010.7
20260904093202 26 102 0.0 0.0 0.00 0.36 0.00 95 1010.7
20260904093102 26 102 0.0 0.0 0.00 0.36 0.00 95 1010.7
20260904093002 26 102 0.0 0.0 0.00 0.36 0.00 95 1010.7
20260904092902 26 102 0.0 0.0 0.00 0.36 0.00 95 1010.7
20260904092803 26 102 0.0 0.0 0.00 0.36 0.00 94 1010.7
20260904092703 26 102 0.0 0.0 0.00 0.36 0.00 94 1010.7
20260904092602 26 102 0.0 0.0 0.00 0.36 0.00 94 1010.7
20260904092502 26 102 0.0 0.0 0.00 0.36 0.00 94 1010.7
20260904092402 26 102 0.0 0.0 0.00 0.36 0.00 94 1010.8
20260904092306 26 102 0.0 0.0 0.00 0.36 0.00 94 1010.7
20260904092202 26 102 0.0 0.0 0.00 0.36 0.00 94 1010.7
20260904092103 26 102 0.0 0.0 0.00 0.36 0.00 94 1010.7
20260904092003 26 102 0.0 0.0 0.00 0.36 0.00 94 1010.7
20260904091903 26 102 0.0 0.0 0.00 0.36 0.00 94 1010.6
20260904091748 26 102 0.0 0.0 0.00 0.36 0.00 94 1010.6
20260904091647 26 102 0.0 0.0 0.00 0.36 0.00 94 1010.6
20260904091546 26 102 0.0 0.0 0.00 0.36 0.00 94 1010.6
20260904091444 26 102 0.0 0.0 0.00 0.36 0.00 94 1010.7
20260904091344 26 102 0.0 0.0 0.00 0.36 0.00 94 1010.6
20260904091244 26 102 0.0 0.0 0.00 0.36 0.00 94 1010.6
20260904091146 26 102 0.0 0.0 0.00 0.36 0.00 94 1010.7
20260904091046 26 93 0.0 0.0 0.00 0.36 0.00 94 1010.6
20260904090946 26 96 0.0 0.0 0.00 0.36 0.00 94 1010.6
20260904090845 26 96 0.0 0.0 0.00 0.36 0.00 94 1010.6
20260904090744 26 96 0.0 0.0 0.00 0.36 0.00 94 1010.7
20260904090644 26 96 0.0 0.0 0.00 0.36 0.00 94 1010.7
20260904090545 26 96 0.0 0.0 0.00 0.36 0.00 94 1010.8
20260904090444 26 96 0.0 0.0 0.00 0.36 0.00 94 1010.8
20260904090344 26 96 0.0 0.0 0.00 0.36 0.00 94 1010.8
20260904090244 26 97 0.0 0.0 0.00 0.36 0.00 94 1010.8
20260904090147 26 97 0.0 0.0 0.00 0.36 0.00 94 1010.8
20260904090045 26 99 0.0 0.0 0.00 0.36 0.00 94 1010.8
20260904085946 26 99 0.0 0.0 0.00 0.36 0.00 94 1010.8
20260904085846 27 100 0.0 0.0 0.00 0.36 0.00 94 1010.9
20260904085745 26 100 0.0 0.0 0.00 0.36 0.00 94 1010.8
20260904085642 27 100 0.0 0.0 0.00 0.36 0.00 94 1010.9
20260904085542 27 100 0.0 0.0 0.00 0.36 0.00 94 1010.9
20260904085439 27 100 0.0 0.0 0.00 0.36 0.00 94 1010.8
20260904085338 27 100 0.0 0.0 0.00 0.36 0.00 94 1010.8
20260904085237 27 100 0.0 0.0 0.00 0.36 0.00 94 1010.9
20260904085135 27 100 0.0 0.0 0.00 0.36 0.00 94 1010.9
20260904085034 27 100 0.0 0.0 0.00 0.36 0.00 94 1010.8
20260904084931 27 100 0.0 0.0 0.00 0.36 0.00 93 1010.9
20260904084831 27 102 0.0 0.0 0.00 0.36 0.00 94 1010.8
20260904084731 27 102 0.0 0.0 0.00 0.36 0.00 93 1010.9
20260904084632 27 102 0.0 0.0 0.00 0.36 0.00 93 1010.8
20260904084531 27 102 0.0 0.0 0.00 0.36 0.00 93 1010.8
20260904084432 27 102 0.0 0.0 0.00 0.36 0.00 93 1010.8
20260904084331 27 102 0.0 0.0 0.00 0.36 0.00 93 1010.9
20260904084232 27 102 0.0 0.0 0.00 0.36 0.00 93 1010.8
20260904084131 27 102 0.0 0.0 0.00 0.36 0.00 93 1010.8
20260904084031 27 102 0.0 0.0 0.00 0.36 0.00 93 1010.8
20260904083932 27 102 0.0 0.0 0.00 0.36 0.00 93 1010.9
20260904083832 27 102 0.0 0.0 0.00 0.36 0.00 93 1010.9
20260904083731 27 102 0.0 0.0 0.00 0.36 0.00 93 1010.9
20260904083631 27 102 0.0 0.0 0.00 0.36 0.00 93 1010.9
20260904083532 27 102 0.0 0.0 0.00 0.36 0.00 93 1010.9
20260904083432 27 102 0.0 0.0 0.00 0.36 0.00 93 1010.9
20260904083331 27 102 0.0 0.0 0.00 0.36 0.00 93 1010.9
20260904083231 27 102 0.0 0.0 0.00 0.36 0.00 93 1010.9
20260904083132 27 102 0.0 0.0 0.00 0.36 0.00 93 1011.0
20260904083031 27 102 0.0 0.0 0.00 0.36 0.00 93 1010.8
20260904082932 27 102 0.0 0.0 0.00 0.36 0.00 93 1010.9
20260904082832 27 102 0.0 0.0 0.00 0.36 0.00 93 1010.9
20260904082731 27 102 0.0 0.0 0.00 0.36 0.00 93 1011.0
20260904082630 27 102 0.0 0.0 0.00 0.36 0.00 93 1010.9
20260904082533 27 102 0.0 0.0 0.00 0.36 0.00 93 1011.0
20260904082431 27 102 0.0 0.0 0.00 0.36 0.00 93 1011.0
20260904082332 27 102 0.0 0.0 0.00 0.36 0.00 93 1011.0
20260904082233 27 102 0.0 0.0 0.00 0.36 0.00 93 1011.1
20260904082111 27 102 0.0 0.0 0.00 0.36 0.00 93 1011.0
20260904082012 27 102 0.0 0.0 0.00 0.36 0.00 93 1011.0
20260904081910 27 102 0.0 0.0 0.00 0.36 0.00 93 1011.0
20260904081807 27 102 0.0 0.0 0.00 0.36 0.00 93 1011.0
20260904081706 27 102 0.0 0.0 0.00 0.36 0.00 93 1011.0
20260904081605 27 102 0.0 0.0 0.00 0.36 0.00 93 1011.0
20260904081503 27 102 0.0 0.0 0.00 0.36 0.00 93 1011.0
20260904081403 27 102 0.0 0.0 0.00 0.36 0.00 93 1011.0
20260904081304 27 102 0.0 0.0 0.00 0.36 0.00 93 1011.0
20260904081202 27 102 0.0 0.0 0.00 0.36 0.00 93 1011.0
20260904081102 27 102 0.0 0.0 0.00 0.36 0.00 93 1011.0
20260904081002 27 102 0.0 0.0 0.00 0.36 0.00 92 1011.0
20260904080904 27 102 0.0 0.0 0.00 0.36 0.00 92 1011.0
20260904080802 27 102 0.0 0.0 0.00 0.36 0.00 92 1010.9
20260904080702 27 102 0.0 0.0 0.00 0.36 0.00 92 1011.0
20260904080603 27 102 0.0 0.0 0.00 0.36 0.00 92 1011.0
20260904080503 27 102 0.0 0.0 0.00 0.36 0.00 92 1011.0
20260904080403 27 102 0.0 0.0 0.00 0.36 0.00 92 1011.0
20260904080302 27 102 0.0 0.0 0.00 0.36 0.00 92 1011.0
20260904080204 27 102 0.0 0.0 0.00 0.36 0.00 92 1011.0
20260904080002 27 102 0.0 0.0 0.00 0.36 0.00 92 1011.0
20260904075904 27 102 0.0 0.0 0.00 0.36 0.00 92 1011.0
20260904075802 27 102 0.0 0.0 0.00 0.36 0.00 91 1010.9
20260904075703 27 102 0.0 0.0 0.00 0.36 0.00 91 1010.9
20260904075603 27 102 0.0 0.0 0.00 0.36 0.00 91 1011.0
20260904075503 27 102 0.0 0.0 0.00 0.36 0.00 91 1010.9
20260904075403 27 102 0.0 0.0 0.00 0.36 0.00 91 1010.9
20260904075306 27 102 0.0 0.0 0.00 0.36 0.00 91 1010.9
20260904075204 27 123 0.0 0.0 0.00 0.36 0.00 91 1010.9
20260904075102 27 123 0.0 0.0 0.00 0.36 0.00 91 1010.9
20260904075003 27 188 0.0 0.0 0.00 0.36 0.00 91 1010.9
20260904074904 27 197 0.0 0.0 0.00 0.36 0.00 91 1010.9
20260904074802 27 199 0.0 3.2 0.00 0.36 0.00 91 1010.9
20260904074702 27 199 0.0 4.8 0.00 0.36 0.00 91 1010.9
20260904074602 27 199 0.0 4.8 0.00 0.36 0.00 91 1011.0
20260904074503 27 199 0.0 4.8 0.00 0.36 0.00 91 1010.9
20260904074402 27 199 0.0 4.8 0.00 0.36 0.00 91 1010.9
20260904074304 27 199 0.0 4.8 0.00 0.36 0.00 91 1010.9
20260904074203 27 199 0.0 4.8 0.00 0.36 0.00 91 1010.9
20260904074102 27 199 0.0 4.8 0.00 0.36 0.00 91 1010.9
20260904074004 27 199 1.6 4.8 0.00 0.36 0.00 91 1010.9
20260904073904 27 199 1.6 4.8 0.00 0.36 0.00 91 1010.9
20260904073804 27 199 1.6 4.8 0.00 0.36 0.00 91 1010.9
20260904073702 27 199 0.0 4.8 0.00 0.36 0.00 91 1010.9
20260904073603 27 199 0.0 4.8 0.00 0.36 0.00 91 1010.9
20260904073503 27 199 0.0 4.8 0.00 0.36 0.00 91 1010.9
20260904073402 27 199 0.0 4.8 0.00 0.36 0.00 91 1010.9
20260904073302 27 199 0.0 4.8 0.00 0.36 0.00 91 1010.9
20260904073203 27 199 1.6 4.8 0.00 0.36 0.00 91 1011.0
20260904073103 27 199 1.6 4.8 0.00 0.36 0.00 91 1010.9
20260904073003 27 199 1.6 4.8 0.00 0.36 0.00 91 1010.9
20260904072902 27 171 0.0 4.8 0.00 0.36 0.00 91 1011.0
20260904072804 27 171 0.0 4.8 0.00 0.36 0.00 91 1011.0
20260904072702 27 171 0.0 4.8 0.00 0.36 0.00 91 1010.9
20260904072603 27 171 0.0 4.8 0.00 0.36 0.00 91 1010.9
20260904072506 27 171 1.6 4.8 0.00 0.36 0.00 91 1011.0
20260904072403 27 171 1.6 4.8 0.00 0.36 0.00 91 1010.9
20260904072306 27 171 1.6 4.8 0.00 0.36 0.00 91 1011.0
20260904072202 27 168 0.0 4.8 0.00 0.36 0.00 91 1010.9
20260904072103 27 168 1.6 4.8 0.00 0.36 0.00 91 1010.9
20260904072002 27 168 1.6 4.8 0.00 0.36 0.00 91 1011.0
20260904071902 27 168 1.6 4.8 0.00 0.36 0.00 91 1011.0
20260904071801 27 168 1.6 3.2 0.00 0.36 0.00 91 1011.0
20260904071703 27 175 0.0 4.8 0.00 0.36 0.00 91 1011.0
20260904071601 27 175 0.0 4.8 0.00 0.36 0.00 91 1011.1
20260904071503 27 175 1.6 6.4 0.00 0.36 0.00 91 1011.0
20260904071402 27 176 1.6 6.4 0.00 0.36 0.00 91 1011.0
20260904071303 27 176 1.6 6.4 0.00 0.36 0.00 91 1011.1
20260904071202 27 176 1.6 6.4 0.00 0.36 0.00 91 1011.1
20260904071102 27 176 0.0 6.4 0.00 0.36 0.00 91 1011.0
20260904071003 27 176 0.0 6.4 0.00 0.36 0.00 91 1011.1
20260904070902 27 176 1.6 6.4 0.00 0.36 0.00 91 1011.1
20260904070803 27 176 3.2 6.4 0.00 0.36 0.00 90 1011.1
20260904070702 27 180 3.2 6.4 0.00 0.36 0.00 91 1011.0
20260904070603 27 183 3.2 6.4 0.00 0.36 0.00 91 1011.1
20260904070502 27 172 3.2 4.8 0.00 0.36 0.00 91 1011.0
20260904070403 27 168 1.6 4.8 0.00 0.36 0.00 91 1011.1
20260904070303 27 171 1.6 4.8 0.00 0.36 0.00 90 1011.1
20260904070204 27 172 3.2 4.8 0.00 0.36 0.00 90 1011.0
20260904070103 27 178 1.6 4.8 0.00 0.36 0.00 90 1011.1
20260904070003 27 175 1.6 4.8 0.00 0.36 0.00 90 1011.1
20260904065902 27 210 1.6 4.8 0.00 0.36 0.00 90 1011.0
20260904065804 27 212 1.6 6.4 0.00 0.36 0.00 90 1011.0
20260904065703 27 213 1.6 8.0 0.00 0.36 0.00 90 1011.1
20260904065602 27 214 1.6 8.0 0.00 0.36 0.00 90 1011.1
20260904065502 27 214 1.6 8.0 0.00 0.36 0.00 90 1011.1
20260904065403 27 214 1.6 8.0 0.00 0.36 0.00 90 1011.0
20260904065306 27 193 1.6 8.0 0.00 0.36 0.00 90 1011.0
20260904065202 27 193 0.0 8.0 0.00 0.36 0.00 90 1011.0
20260904065103 27 193 1.6 8.0 0.00 0.36 0.00 90 1011.0
20260904065004 27 193 3.2 8.0 0.00 0.36 0.00 90 1011.0
20260904064901 27 190 4.8 8.0 0.00 0.36 0.00 90 1011.0
20260904064802 27 210 3.2 8.0 0.00 0.36 0.00 90 1011.0
20260904064704 27 196 1.6 6.4 0.00 0.36 0.00 90 1011.0
20260904064602 27 197 1.6 6.4 0.00 0.36 0.00 90 1010.9
20260904064503 27 197 3.2 6.4 0.00 0.36 0.00 90 1011.0
20260904064403 27 216 3.2 6.4 0.00 0.36 0.00 90 1011.0
20260904064303 27 217 4.8 6.4 0.00 0.36 0.00 90 1011.0
20260904064202 27 189 4.8 9.7 0.00 0.36 0.00 90 1011.0
20260904064102 27 196 4.8 9.7 0.00 0.36 0.00 90 1011.0
20260904064004 27 217 3.2 9.7 0.00 0.36 0.00 90 1011.0
20260904063901 27 193 1.6 9.7 0.00 0.36 0.00 90 1011.0
20260904063803 27 189 3.2 9.7 0.00 0.36 0.00 90 1011.0
20260904063704 27 189 3.2 9.7 0.00 0.36 0.00 90 1011.1
20260904063602 27 189 3.2 9.7 0.00 0.36 0.00 90 1011.1
20260904063504 27 189 3.2 9.7 0.00 0.36 0.00 90 1011.0
20260904063404 27 199 4.8 9.7 0.00 0.36 0.00 90 1011.0
20260904063302 27 213 4.8 9.7 0.00 0.36 0.00 90 1011.0
20260904063201 27 190 4.8 9.7 0.00 0.36 0.00 90 1011.0
20260904063100 27 221 4.8 9.7 0.00 0.36 0.00 90 1010.9
20260904062959 27 220 3.2 6.4 0.00 0.36 0.00 90 1011.0
20260904062856 27 214 3.2 8.0 0.00 0.36 0.00 90 1010.9
20260904062754 27 216 3.2 8.0 0.00 0.36 0.00 90 1011.0
20260904062653 27 216 4.8 8.0 0.00 0.36 0.00 90 1011.0
20260904062551 27 196 4.8 8.0 0.00 0.36 0.00 90 1011.0
20260904062449 27 200 3.2 8.0 0.00 0.36 0.00 90 1011.0
20260904062347 27 204 1.6 8.0 0.00 0.36 0.00 90 1011.0
20260904062247 27 206 3.2 8.0 0.00 0.36 0.00 90 1011.0
20260904062142 27 207 4.8 8.0 0.00 0.36 0.00 90 1011.0
20260904062040 27 193 4.8 8.0 0.00 0.36 0.00 90 1011.0
20260904061940 27 196 4.8 8.0 0.00 0.36 0.00 90 1011.0
20260904061842 27 180 3.2 8.0 0.00 0.36 0.00 90 1011.0
20260904061740 27 186 3.2 8.0 0.00 0.36 0.00 90 1011.0
20260904061639 27 168 4.8 8.0 0.00 0.36 0.00 90 1011.0
20260904061542 27 197 4.8 8.0 0.00 0.36 0.00 90 1011.0
20260904061441 27 192 3.2 8.0 0.00 0.36 0.00 90 1011.1
20260904061341 27 199 3.2 4.8 0.00 0.36 0.00 90 1011.0
20260904061240 27 200 3.2 4.8 0.00 0.36 0.00 90 1011.0
20260904061141 27 202 1.6 4.8 0.00 0.36 0.00 90 1011.0
20260904061040 27 204 3.2 4.8 0.00 0.36 0.00 90 1011.1
20260904060940 27 197 3.2 4.8 0.00 0.36 0.00 90 1011.1
20260904060842 27 180 3.2 6.4 0.00 0.36 0.00 90 1011.1
20260904060740 27 140 0.0 6.4 0.00 0.36 0.00 90 1011.1
20260904060640 27 130 1.6 6.4 0.00 0.36 0.00 90 1011.2
20260904060540 27 130 1.6 6.4 0.00 0.36 0.00 90 1011.2
20260904060442 27 130 1.6 6.4 0.00 0.36 0.00 90 1011.2
20260904060341 27 128 1.6 6.4 0.00 0.36 0.00 90 1011.2
20260904060241 27 125 1.6 6.4 0.00 0.36 0.00 90 1011.2
20260904060141 27 124 1.6 6.4 0.00 0.36 0.00 90 1011.3
20260904060041 27 123 3.2 6.4 0.00 0.36 0.00 90 1011.3
20260904055940 27 118 3.2 6.4 0.00 0.36 0.00 90 1011.3
20260904055840 27 159 4.8 6.4 0.00 0.36 0.00 90 1011.2
20260904055741 27 141 4.8 6.4 0.00 0.36 0.00 90 1011.3
20260904055640 27 141 1.6 6.4 0.00 0.36 0.00 90 1011.3
20260904055540 27 168 1.6 6.4 0.00 0.36 0.00 90 1011.3
20260904055441 27 168 3.2 6.4 0.00 0.36 0.00 90 1011.3
20260904055340 27 125 3.2 6.4 0.00 0.36 0.00 90 1011.3
20260904055241 27 123 3.2 6.4 0.00 0.36 0.00 90 1011.1
20260904055141 27 133 1.6 8.0 0.00 0.36 0.00 90 1011.2
20260904055041 27 130 1.6 8.0 0.00 0.36 0.00 90 1011.2
20260904054940 27 130 1.6 8.0 0.00 0.36 0.00 90 1011.2
20260904054840 27 131 1.6 8.0 0.00 0.36 0.00 90 1011.2
20260904054741 27 130 3.2 8.0 0.00 0.36 0.00 90 1011.3
20260904054640 27 125 3.2 8.0 0.00 0.36 0.00 90 1011.2
20260904054540 27 161 3.2 8.0 0.00 0.36 0.00 90 1011.3
20260904054441 27 125 3.2 8.0 0.00 0.36 0.00 90 1011.3
20260904054340 27 135 4.8 8.0 0.00 0.36 0.00 90 1011.2
20260904054239 27 133 4.8 8.0 0.00 0.36 0.00 90 1011.2
20260904054139 27 152 3.2 8.0 0.00 0.36 0.00 90 1011.3
20260904054041 27 125 3.2 8.0 0.00 0.36 0.00 90 1011.2
20260904053941 27 134 4.8 8.0 0.00 0.36 0.00 90 1011.2
20260904053839 27 138 3.2 8.0 0.00 0.36 0.00 90 1011.2
20260904053741 27 145 3.2 6.4 0.00 0.36 0.00 90 1011.2
20260904053640 27 141 3.2 6.4 0.00 0.36 0.00 90 1011.2
20260904053540 27 154 3.2 6.4 0.00 0.36 0.00 90 1011.1
20260904053439 27 171 3.2 6.4 0.00 0.36 0.00 90 1011.2
20260904053341 27 157 3.2 6.4 0.00 0.36 0.00 90 1011.2
20260904053239 27 127 1.6 6.4 0.00 0.36 0.00 90 1011.1
20260904053139 27 171 1.6 6.4 0.00 0.36 0.00 90 1011.1
20260904053039 27 131 3.2 6.4 0.00 0.36 0.00 90 1011.1
20260904052940 27 133 3.2 8.0 0.00 0.36 0.00 90 1011.1
20260904052839 27 166 3.2 8.0 0.00 0.36 0.00 90 1011.0
20260904052739 27 128 3.2 8.0 0.00 0.36 0.00 90 1011.1
20260904052641 27 141 3.2 8.0 0.00 0.36 0.00 90 1011.1
20260904052540 27 183 3.2 8.0 0.00 0.36 0.00 90 1011.1
20260904052439 27 147 3.2 8.0 0.00 0.36 0.00 90 1011.1
20260904052340 27 141 1.6 8.0 0.00 0.36 0.00 90 1011.2
20260904052239 27 142 3.2 8.0 0.00 0.36 0.00 90 1011.1
20260904052139 27 142 3.2 8.0 0.00 0.36 0.00 90 1011.1
20260904052039 27 137 4.8 8.0 0.00 0.36 0.00 90 1011.1
20260904051940 27 140 3.2 8.0 0.00 0.36 0.00 90 1011.2
20260904051839 27 169 1.6 8.0 0.00 0.36 0.00 90 1011.1
20260904051739 27 135 1.6 8.0 0.00 0.36 0.00 90 1011.2
20260904051640 27 161 3.2 8.0 0.00 0.36 0.00 90 1011.1
20260904051540 27 142 3.2 8.0 0.00 0.36 0.00 90 1011.1
20260904051439 27 145 3.2 8.0 0.00 0.36 0.00 90 1011.1
20260904051339 27 116 1.6 8.0 0.00 0.36 0.00 90 1011.1
20260904051241 27 106 1.6 8.0 0.00 0.36 0.00 90 1011.1
20260904051140 27 148 4.8 8.0 0.00 0.36 0.00 91 1011.1
20260904051039 27 131 3.2 8.0 0.00 0.36 0.00 91 1011.1
20260904050940 27 152 1.6 8.0 0.00 0.36 0.00 91 1011.1
20260904050839 27 151 3.2 8.0 0.00 0.36 0.00 91 1011.1
20260904050739 27 151 3.2 8.0 0.00 0.36 0.00 91 1011.1
20260904050639 27 104 1.6 8.0 0.00 0.36 0.00 91 1011.1
20260904050540 27 145 3.2 8.0 0.00 0.36 0.00 91 1011.1
20260904050439 27 145 3.2 8.0 0.00 0.36 0.00 91 1011.1
20260904050339 27 131 3.2 8.0 0.00 0.36 0.00 91 1011.1
20260904050241 27 104 3.2 8.0 0.00 0.36 0.00 91 1011.1
20260904050138 27 107 3.2 8.0 0.00 0.36 0.00 91 1011.1
20260904050039 27 120 3.2 8.0 0.00 0.36 0.00 91 1011.0
20260904045940 27 140 4.8 9.7 0.00 0.36 0.36 91 1011.1
20260904045839 27 110 3.2 9.7 0.00 0.36 0.36 91 1011.1
20260904045738 27 117 1.6 9.7 0.00 0.36 0.36 91 1011.1
20260904045638 27 111 3.2 9.7 0.00 0.36 0.36 91 1011.0
20260904045540 27 110 1.6 9.7 0.00 0.36 0.36 91 1011.0
20260904045439 27 109 3.2 9.7 0.00 0.36 0.36 91 1011.0
20260904045340 27 145 3.2 9.7 0.00 0.36 0.36 91 1011.0
20260904045240 27 145 3.2 9.7 0.00 0.36 0.36 91 1011.0
20260904045139 27 135 3.2 9.7 0.00 0.36 0.36 91 1011.0
20260904045038 27 152 4.8 9.7 0.00 0.36 0.36 91 1011.0
20260904044939 27 152 4.8 9.7 0.00 0.36 0.36 91 1011.0
20260904044839 27 134 4.8 9.7 0.00 0.36 0.36 91 1010.9
20260904044740 27 137 3.2 9.7 0.00 0.36 0.36 91 1011.0
20260904044639 27 145 1.6 9.7 0.00 0.36 0.36 91 1011.0
20260904044538 27 124 1.6 9.7 0.00 0.36 0.36 91 1011.1
20260904044440 27 124 3.2 9.7 0.00 0.36 0.36 91 1011.0
20260904044339 27 100 4.8 9.7 0.00 0.36 0.36 91 1011.0
20260904044239 27 148 6.4 9.7 0.00 0.36 0.36 91 1011.0
20260904044138 27 145 4.8 9.7 0.00 0.36 0.36 91 1011.0
20260904044040 27 138 3.2 9.7 0.00 0.36 0.36 91 1011.0
20260904043938 27 104 1.6 6.4 0.00 0.36 0.36 91 1011.0
20260904043839 27 109 1.6 6.4 0.00 0.36 0.36 91 1011.0
20260904043739 27 137 1.6 6.4 0.00 0.36 0.36 91 1011.0
20260904043638 27 133 3.2 6.4 0.00 0.36 0.36 91 1011.1
20260904043538 27 141 3.2 6.4 0.00 0.36 0.36 91 1011.0
20260904043440 27 138 3.2 6.4 0.00 0.36 0.36 91 1011.0
20260904043338 27 161 3.2 4.8 0.00 0.36 0.36 91 1011.1
20260904043238 27 106 1.6 6.4 0.00 0.36 0.36 91 1011.1
20260904043137 27 114 0.0 6.4 0.00 0.36 0.36 91 1011.1
20260904043034 27 99 0.0 6.4 0.00 0.36 0.36 91 1011.1
20260904042933 27 99 0.0 6.4 0.00 0.36 0.36 91 1011.1
20260904042831 27 99 1.6 6.4 0.00 0.36 0.36 91 1011.2
20260904042731 27 97 1.6 6.4 0.00 0.36 0.36 91 1011.1
20260904042632 27 97 1.6 6.4 0.00 0.36 0.36 91 1011.2
20260904042531 27 97 3.2 6.4 0.00 0.36 0.36 91 1011.1
20260904042432 27 130 3.2 6.4 0.00 0.36 0.36 91 1011.2
20260904042333 27 141 3.2 6.4 0.00 0.36 0.36 91 1011.1
20260904042231 27 103 3.2 6.4 0.00 0.36 0.36 91 1011.1
20260904042129 27 148 3.2 6.4 0.00 0.36 0.36 91 1011.1
20260904042026 27 114 3.2 4.8 0.00 0.36 0.36 92 1011.2
20260904041927 27 114 3.2 4.8 0.00 0.36 0.36 92 1011.2
20260904041825 27 92 3.2 4.8 0.00 0.36 0.36 92 1011.1
20260904041724 27 149 3.2 6.4 0.00 0.36 0.36 92 1011.1
20260904041622 27 134 3.2 6.4 0.00 0.36 0.36 92 1011.1
20260904041517 27 104 3.2 6.4 0.00 0.36 0.36 92 1011.2
20260904041418 27 159 3.2 8.0 0.00 0.36 0.36 92 1011.2
20260904041318 27 137 3.2 8.0 0.00 0.36 0.36 92 1011.2
20260904041217 27 94 3.2 8.0 0.00 0.36 0.36 92 1011.2
20260904041114 27 106 3.2 8.0 0.00 0.36 0.36 92 1011.2
20260904041010 27 104 3.2 8.0 0.00 0.36 0.36 92 1011.2
20260904040908 27 103 3.2 8.0 0.00 0.36 0.36 92 1011.2
20260904040807 27 102 3.2 8.0 0.00 0.36 0.36 92 1011.2
20260904040705 27 137 4.8 8.0 0.00 0.36 0.36 92 1011.2
20260904040603 27 131 4.8 8.0 0.00 0.36 0.36 92 1011.2
20260904040503 27 137 3.2 8.0 0.00 0.36 0.36 92 1011.2
20260904040405 27 125 3.2 8.0 0.00 0.36 0.36 92 1011.2
20260904040302 27 125 3.2 8.0 0.00 0.36 0.36 92 1011.2
20260904040202 27 114 3.2 8.0 0.00 0.36 0.36 92 1011.2
20260904040002 27 103 3.2 8.0 0.00 0.36 0.36 92 1011.1
20260904035902 27 141 3.2 8.0 0.00 0.36 0.36 92 1011.1
20260904035804 27 151 3.2 8.0 0.00 0.36 0.36 92 1011.1
20260904035702 27 154 3.2 8.0 0.00 0.36 0.36 92 1011.2
20260904035603 27 131 3.2 8.0 0.00 0.36 0.36 92 1011.1
20260904035502 27 100 3.2 8.0 0.00 0.36 0.36 92 1011.2
20260904035402 27 94 3.2 8.0 0.00 0.36 0.36 92 1011.1
20260904035305 27 138 3.2 8.0 0.00 0.36 0.36 92 1011.1
20260904035203 27 127 3.2 6.4 0.00 0.36 0.36 92 1011.2
20260904035102 27 138 3.2 6.4 0.00 0.36 0.36 92 1011.1
20260904035004 27 161 3.2 6.4 0.00 0.36 0.36 92 1011.1
20260904034902 27 162 3.2 6.4 0.00 0.36 0.36 92 1011.1
20260904034803 27 165 3.2 6.4 0.00 0.36 0.36 92 1011.0
20260904034702 27 176 1.6 6.4 0.00 0.36 0.36 92 1011.1
20260904034604 27 148 1.6 4.8 0.00 0.36 0.36 92 1011.1
20260904034504 27 148 1.6 4.8 0.00 0.36 0.36 92 1011.1
20260904034401 27 148 1.6 4.8 0.00 0.36 0.36 92 1011.1
20260904034303 27 138 1.6 4.8 0.00 0.36 0.36 92 1011.1
20260904034203 27 137 1.6 6.4 0.00 0.36 0.36 92 1011.1
20260904034102 27 138 1.6 6.4 0.00 0.36 0.36 92 1011.2
20260904034002 27 135 0.0 6.4 0.00 0.36 0.36 92 1011.1
20260904033902 27 135 0.0 6.4 0.00 0.36 0.36 92 1011.1
20260904033802 27 135 1.6 6.4 0.00 0.36 0.36 92 1011.1
20260904033701 27 130 1.6 6.4 0.00 0.36 0.36 92 1011.2
20260904033603 27 128 1.6 6.4 0.00 0.36 0.36 92 1011.2
20260904033502 27 128 3.2 6.4 0.00 0.36 0.36 92 1011.1
20260904033404 27 128 3.2 6.4 0.00 0.36 0.36 92 1011.2
20260904033303 27 147 3.2 6.4 0.00 0.36 0.36 92 1011.2
20260904033202 27 134 1.6 6.4 0.00 0.36 0.36 92 1011.2
20260904033103 27 131 1.6 6.4 0.00 0.36 0.36 92 1011.1
20260904033005 27 131 3.2 6.4 0.00 0.36 0.36 92 1011.2
20260904032902 27 131 3.2 6.4 0.00 0.36 0.36 92 1011.2
20260904032802 27 155 3.2 6.4 0.00 0.36 0.36 92 1011.1
20260904032702 27 141 1.6 6.4 0.00 0.36 0.36 92 1011.1
20260904032603 27 130 1.6 6.4 0.00 0.36 0.36 92 1011.2
20260904032504 27 109 1.6 6.4 0.00 0.36 0.36 92 1011.2
20260904032402 27 109 3.2 6.4 0.00 0.36 0.36 92 1011.3
20260904032305 27 102 3.2 6.4 0.00 0.36 0.36 92 1011.2
20260904032203 27 124 3.2 6.4 0.00 0.36 0.36 92 1011.2
20260904032104 27 121 3.2 6.4 0.00 0.36 0.36 92 1011.2
20260904032002 27 118 3.2 6.4 0.00 0.36 0.36 92 1011.2
20260904031903 27 111 3.2 6.4 0.00 0.36 0.36 92 1011.2
20260904031802 27 147 4.8 6.4 0.00 0.36 0.36 92 1011.2
20260904031702 27 144 4.8 6.4 0.00 0.36 0.36 92 1011.2
20260904031602 27 111 4.8 6.4 0.00 0.36 0.36 92 1011.2
20260904031504 27 134 4.8 6.4 0.00 0.36 0.36 92 1011.2
20260904031403 27 103 3.2 6.4 0.00 0.36 0.36 92 1011.2
20260904031302 27 107 3.2 6.4 0.00 0.36 0.36 92 1011.2
20260904031203 27 100 3.2 6.4 0.00 0.36 0.36 92 1011.2
20260904031102 27 120 3.2 6.4 0.00 0.36 0.36 92 1011.1
20260904031004 27 142 3.2 6.4 0.00 0.36 0.36 92 1011.2
20260904030904 27 114 3.2 8.0 0.00 0.36 0.36 92 1011.2
20260904030802 27 149 3.2 8.0 0.00 0.36 0.36 92 1011.2
20260904030702 27 120 3.2 8.0 0.00 0.36 0.36 92 1011.1
20260904030602 27 145 3.2 8.0 0.00 0.36 0.36 92 1011.1
20260904030505 27 135 3.2 8.0 0.00 0.36 0.36 92 1011.1
20260904030403 27 151 3.2 8.0 0.00 0.36 0.36 92 1011.2
20260904030302 27 161 3.2 8.0 0.00 0.36 0.36 91 1011.1
20260904030203 27 130 3.2 8.0 0.00 0.36 0.36 91 1011.1
20260904030103 27 127 3.2 8.0 0.00 0.36 0.36 91 1011.1
20260904030006 27 135 3.2 8.0 0.00 0.36 0.36 91 1011.0
20260904025903 27 169 1.6 8.0 0.00 0.36 0.36 91 1011.1
20260904025803 27 137 3.2 8.0 0.00 0.36 0.36 91 1011.1
20260904025702 27 154 3.2 8.0 0.00 0.36 0.36 91 1011.1
20260904025602 27 155 4.8 8.0 0.00 0.36 0.36 91 1011.1
20260904025505 27 135 3.2 8.0 0.00 0.36 0.36 91 1011.0
20260904025404 27 195 3.2 8.0 0.00 0.36 0.36 91 1011.1
20260904025305 27 148 3.2 8.0 0.00 0.36 0.36 91 1011.1
20260904025203 27 144 1.6 8.0 0.00 0.36 0.36 91 1011.1
20260904025102 27 134 3.2 8.0 0.00 0.36 0.36 91 1011.1
20260904025002 27 134 3.2 8.0 0.00 0.36 0.36 91 1011.1
20260904024902 27 117 3.2 8.0 0.00 0.36 0.36 91 1011.1
20260904024804 27 117 3.2 8.0 0.00 0.36 0.36 91 1011.1
20260904024702 27 128 3.2 8.0 0.00 0.36 0.36 91 1011.0
20260904024603 27 121 3.2 8.0 0.00 0.36 0.36 91 1011.0
20260904024505 27 121 3.2 8.0 0.00 0.36 0.36 91 1011.1
20260904024402 27 140 3.2 8.0 0.00 0.36 0.36 91 1011.0
20260904024302 27 140 3.2 8.0 0.00 0.36 0.36 91 1011.0
20260904024202 27 109 3.2 8.0 0.00 0.36 0.36 91 1011.0
20260904024103 27 109 4.8 9.7 0.00 0.36 0.36 91 1011.0
20260904024002 27 120 3.2 9.7 0.00 0.36 0.36 91 1011.0
20260904023902 27 103 3.2 9.7 0.00 0.36 0.36 91 1011.0
20260904023803 27 130 3.2 9.7 0.00 0.36 0.36 90 1011.0
20260904023702 27 134 3.2 9.7 0.00 0.36 0.36 90 1011.0
20260904023603 27 97 3.2 9.7 0.00 0.36 0.36 90 1010.9
20260904023502 27 133 4.8 9.7 0.00 0.36 0.36 90 1010.9
20260904023402 27 124 4.8 9.7 0.00 0.36 0.36 90 1010.9
20260904023303 27 97 6.4 9.7 0.00 0.36 0.36 90 1010.9
20260904023203 27 117 6.4 9.7 0.00 0.36 0.36 90 1010.9
20260904023103 27 110 4.8 8.0 0.00 0.36 0.36 90 1010.9
20260904023003 27 103 3.2 6.4 0.00 0.36 0.36 90 1010.9
20260904022902 27 62 3.2 8.0 0.00 0.36 0.36 90 1010.9
20260904022804 27 120 3.2 8.0 0.00 0.36 0.36 90 1010.9
20260904022703 27 127 3.2 8.0 0.00 0.36 0.36 90 1010.8
20260904022603 27 97 3.2 8.0 0.00 0.36 0.36 90 1010.8
20260904022502 27 152 3.2 8.0 0.00 0.36 0.36 90 1010.8
20260904022405 27 159 3.2 8.0 0.00 0.36 0.36 90 1010.8
20260904022305 27 113 1.6 8.0 0.00 0.36 0.36 90 1010.8
20260904022201 27 113 1.6 8.0 0.00 0.36 0.36 90 1010.8
20260904022103 27 134 4.8 8.0 0.00 0.36 0.36 90 1010.8
20260904022004 27 113 4.8 8.0 0.00 0.36 0.36 90 1010.8
20260904021902 28 111 4.8 8.0 0.00 0.36 0.36 90 1010.8
20260904021802 28 94 3.2 8.0 0.00 0.36 0.36 90 1010.8
20260904021704 28 164 3.2 8.0 0.00 0.36 0.36 90 1010.6
20260904021601 27 104 1.6 8.0 0.00 0.36 0.36 90 1010.7
20260904021503 28 104 3.2 8.0 0.00 0.36 0.36 90 1010.6
20260904021404 28 113 6.4 9.7 0.00 0.36 0.36 90 1010.6
20260904021304 28 113 6.4 9.7 0.00 0.36 0.36 90 1010.6
20260904021203 28 113 6.4 9.7 0.00 0.36 0.36 90 1010.6
20260904021103 28 113 6.4 9.7 0.00 0.36 0.36 90 1010.6
20260904021004 28 116 6.4 9.7 0.00 0.36 0.36 90 1010.6
20260904020904 28 116 6.4 9.7 0.00 0.36 0.36 90 1010.6
20260904020803 28 116 6.4 9.7 0.00 0.36 0.36 90 1010.5
20260904020648 28 116 6.4 9.7 0.00 0.36 0.36 90 1010.5
20260904020546 28 110 6.4 9.7 0.00 0.36 0.36 90 1010.6
20260904020445 28 116 6.4 9.7 0.00 0.36 0.36 90 1010.5
20260904020343 28 109 6.4 9.7 0.00 0.36 0.36 90 1010.5
20260904020243 28 104 6.4 9.7 0.00 0.36 0.36 90 1010.6
20260904020140 28 107 6.4 9.7 0.00 0.36 0.36 90 1010.5
20260904020041 28 97 6.4 9.7 0.00 0.36 0.36 90 1010.5
20260904015934 28 111 6.4 9.7 0.00 0.36 0.36 90 1010.5
20260904015837 28 104 6.4 9.7 0.00 0.36 0.36 90 1010.5
20260904015735 27 87 4.8 9.7 0.00 0.36 0.36 90 1010.6
20260904015635 27 107 4.8 8.0 0.00 0.36 0.36 90 1010.5
20260904015535 27 109 4.8 8.0 0.00 0.36 0.36 90 1010.6
20260904015435 27 104 4.8 8.0 0.00 0.36 0.36 90 1010.5
20260904015335 27 100 3.2 8.0 0.00 0.36 0.36 90 1010.5
20260904015234 27 99 3.2 8.0 0.00 0.36 0.36 90 1010.5
20260904015135 27 97 4.8 8.0 0.00 0.36 0.36 90 1010.5
20260904015034 27 99 6.4 8.0 0.00 0.36 0.36 90 1010.4
20260904014933 27 104 6.4 8.0 0.00 0.36 0.36 90 1010.5
20260904014835 27 117 6.4 8.0 0.00 0.36 0.36 90 1010.5
20260904014735 27 111 6.4 8.0 0.00 0.36 0.36 90 1010.5
20260904014634 27 104 6.4 8.0 0.00 0.36 0.36 90 1010.5
20260904014535 27 109 6.4 8.0 0.00 0.36 0.36 90 1010.5
20260904014436 27 111 6.4 8.0 0.00 0.36 0.36 90 1010.5
20260904014335 27 111 6.4 8.0 0.00 0.36 0.36 90 1010.4
20260904014235 27 121 4.8 8.0 0.00 0.36 0.36 90 1010.4
20260904014135 27 48 3.2 6.4 0.00 0.36 0.36 90 1010.4
20260904014034 27 35 3.2 4.8 0.00 0.36 0.36 90 1010.4
20260904013934 27 35 3.2 4.8 0.00 0.36 0.36 90 1010.4
20260904013835 27 32 3.2 4.8 0.00 0.36 0.36 90 1010.4
20260904013736 27 23 3.2 4.8 0.00 0.36 0.36 90 1010.3
20260904013634 27 23 1.6 4.8 0.00 0.36 0.36 90 1010.3
20260904013535 27 23 1.6 4.8 0.00 0.36 0.36 90 1010.4
20260904013435 27 23 3.2 4.8 0.00 0.36 0.36 90 1010.4
20260904013335 27 23 3.2 4.8 0.00 0.36 0.36 90 1010.3
20260904013234 27 23 3.2 4.8 0.00 0.36 0.36 90 1010.4
20260904013134 27 23 3.2 4.8 0.00 0.36 0.36 90 1010.3
20260904013035 27 23 3.2 4.8 0.00 0.36 0.36 90 1010.3
20260904012934 27 23 3.2 4.8 0.00 0.36 0.36 90 1010.3
20260904012835 27 23 3.2 4.8 0.00 0.36 0.36 90 1010.3
20260904012735 27 23 3.2 3.2 0.00 0.36 0.36 90 1010.3
20260904012634 27 23 1.6 3.2 0.00 0.36 0.36 90 1010.3
20260904012534 27 18 0.0 0.0 0.00 0.36 0.36 90 1010.2
20260904012435 27 20 0.0 0.0 0.00 0.36 0.36 89 1010.3
20260904012335 27 20 0.0 0.0 0.00 0.36 0.36 89 1010.3
20260904012234 27 20 0.0 0.0 0.00 0.36 0.36 89 1010.3
20260904012134 27 20 0.0 0.0 0.00 0.36 0.36 89 1010.2
20260904012035 27 20 0.0 0.0 0.00 0.36 0.36 89 1010.3
20260904011933 27 21 0.0 0.0 0.00 0.36 0.36 89 1010.2
20260904011833 27 21 0.0 0.0 0.00 0.36 0.36 89 1010.2
20260904011734 27 23 0.0 0.0 0.00 0.36 0.36 89 1010.3
20260904011634 27 23 0.0 1.6 0.00 0.36 0.36 89 1010.3
20260904011533 27 23 0.0 3.2 0.00 0.36 0.36 89 1010.3
20260904011433 27 23 0.0 3.2 0.00 0.36 0.36 89 1010.3
20260904011336 27 23 0.0 4.8 0.00 0.36 0.36 89 1010.3
20260904011234 27 23 0.0 4.8 0.00 0.36 0.36 89 1010.2
20260904011135 27 23 0.0 4.8 0.00 0.36 0.36 89 1010.3
20260904011034 27 23 0.0 4.8 0.00 0.36 0.36 89 1010.2
20260904010934 27 23 0.0 4.8 0.00 0.36 0.36 89 1010.2
20260904010834 27 23 0.0 4.8 0.00 0.36 0.36 88 1010.2
20260904010734 27 23 1.6 4.8 0.00 0.36 0.36 88 1010.2
20260904010634 27 23 1.6 4.8 0.00 0.36 0.36 88 1010.1
20260904010533 27 23 3.2 4.8 0.00 0.36 0.36 88 1010.1
20260904010434 27 23 3.2 4.8 0.00 0.36 0.36 88 1010.2
20260904010334 27 23 3.2 4.8 0.00 0.36 0.36 88 1010.2
20260904010234 27 23 3.2 4.8 0.00 0.36 0.36 88 1010.2
20260904010133 27 23 3.2 4.8 0.00 0.36 0.36 88 1010.1
20260904010033 27 23 3.2 4.8 0.00 0.36 0.36 88 1010.2
20260904005934 27 23 3.2 4.8 0.00 0.36 0.36 88 1010.2
20260904005834 27 23 4.8 4.8 0.00 0.36 0.36 88 1010.2
20260904005734 27 23 3.2 4.8 0.00 0.36 0.36 88 1010.1
20260904005636 27 23 0.0 4.8 0.00 0.36 0.36 88 1010.2
20260904005533 27 23 0.0 4.8 0.00 0.36 0.36 88 1010.2
20260904005434 27 23 0.0 4.8 0.00 0.36 0.36 88 1010.2
20260904005333 27 23 0.0 4.8 0.00 0.36 0.36 88 1010.2
20260904005234 27 23 0.0 4.8 0.00 0.36 0.36 88 1010.2
20260904005133 27 23 0.0 6.4 0.00 0.36 0.36 88 1010.2
20260904005033 27 23 1.6 6.4 0.00 0.36 0.36 87 1010.2
20260904004934 27 23 3.2 6.4 0.00 0.36 0.36 87 1010.2
20260904004833 27 23 3.2 6.4 0.00 0.36 0.36 87 1010.2
20260904004733 27 23 3.2 6.4 0.00 0.36 0.36 87 1010.2
20260904004633 27 23 1.6 6.4 0.00 0.36 0.36 87 1010.1
20260904004535 28 23 3.2 6.4 0.00 0.36 0.36 87 1010.2
20260904004433 28 23 3.2 6.4 0.00 0.36 0.36 87 1010.2
20260904004333 28 23 3.2 6.4 0.00 0.36 0.36 87 1010.1
20260904004234 28 23 3.2 6.4 0.00 0.36 0.36 87 1010.1
20260904004133 28 21 3.2 4.8 0.00 0.36 0.36 87 1010.1
20260904004033 28 21 1.6 4.8 0.00 0.36 0.36 87 1010.2
20260904003932 28 18 0.0 0.0 0.00 0.36 0.36 87 1010.1
20260904003833 28 13 0.0 0.0 0.00 0.36 0.36 87 1010.2
20260904003733 28 13 0.0 0.0 0.00 0.36 0.36 87 1010.1
20260904003633 28 11 0.0 0.0 0.00 0.36 0.36 87 1010.1
20260904003534 28 11 0.0 0.0 0.00 0.36 0.36 87 1010.2
20260904003433 28 11 0.0 0.0 0.00 0.36 0.36 87 1010.1
20260904003335 28 11 0.0 0.0 0.00 0.36 0.36 86 1010.2
20260904003234 28 6 0.0 0.0 0.00 0.36 0.36 86 1010.1
20260904003133 28 6 0.0 0.0 0.00 0.36 0.36 86 1010.2
20260904003033 28 6 0.0 0.0 0.00 0.36 0.36 86 1010.2
20260904002932 28 6 0.0 0.0 0.00 0.36 0.36 86 1010.2
20260904002834 28 6 0.0 0.0 0.00 0.36 0.36 86 1010.3
20260904002732 28 6 0.0 0.0 0.00 0.36 0.36 86 1010.2
20260904002632 28 6 0.0 0.0 0.00 0.36 0.36 86 1010.2
20260904002531 28 6 0.0 0.0 0.00 0.36 0.36 86 1010.3
20260904002433 28 6 0.0 0.0 0.00 0.36 0.36 86 1010.2
20260904002332 28 6 0.0 0.0 0.00 0.36 0.36 86 1010.2
20260904002232 28 6 0.0 0.0 0.00 0.36 0.36 86 1010.2
20260904002131 28 6 0.0 0.0 0.00 0.36 0.36 85 1010.3
20260904002031 28 6 0.0 0.0 0.00 0.36 0.36 85 1010.2
20260904001931 28 6 0.0 0.0 0.00 0.36 0.36 85 1010.2
20260904001831 28 6 0.0 0.0 0.00 0.36 0.36 85 1010.2
20260904001732 28 6 0.0 0.0 0.00 0.36 0.36 85 1010.3
20260904001631 28 6 0.0 0.0 0.00 0.36 0.36 85 1010.3
20260904001533 28 6 0.0 0.0 0.00 0.36 0.36 85 1010.3
20260904001431 28 6 0.0 0.0 0.00 0.36 0.36 84 1010.3
20260904001332 28 6 0.0 0.0 0.00 0.36 0.36 85 1010.3
20260904001232 28 6 0.0 0.0 0.00 0.36 0.36 84 1010.3
20260904001131 28 6 0.0 0.0 0.00 0.36 0.36 84 1010.2
20260904001032 28 6 0.0 0.0 0.00 0.36 0.36 84 1010.3
20260904000931 28 6 0.0 0.0 0.00 0.36 0.36 84 1010.3
20260904000832 28 6 0.0 0.0 0.00 0.36 0.36 84 1010.3
20260904000719 28 6 0.0 0.0 0.00 0.36 0.36 84 1010.3
20260904000616 28 6 0.0 0.0 0.00 0.36 0.36 84 1010.3
20260904000515 28 6 0.0 0.0 0.00 0.36 0.36 84 1010.3
20260904000413 28 6 0.0 0.0 0.00 0.36 0.36 84 1010.3
20260904000311 28 6 0.0 0.0 0.00 0.36 0.36 84 1010.3
20260904000211 28 6 0.0 0.0 0.00 0.36 0.36 84 1010.4
20260904000109 28 7 0.0 0.0 0.00 0.36 0.36 84 1010.3
20260904000007 28 7 0.0 0.0 0.00 0.36 0.36 85 1010.4
20260903235905 28 7 0.0 0.0 0.00 0.36 0.36 85 1010.3
20260903235804 28 7 0.0 0.0 0.00 0.36 0.36 85 1010.4
20260903235703 28 7 0.0 0.0 0.00 0.36 0.36 85 1010.4
20260903235603 28 7 0.0 0.0 0.00 0.36 0.36 85 1010.4
20260903235502 28 7 0.0 0.0 0.00 0.36 0.36 85 1010.4
20260903235404 28 7 0.0 0.0 0.00 0.36 0.36 85 1010.4
20260903235305 28 7 0.0 0.0 0.00 0.36 0.36 85 1010.4
20260903235205 28 7 0.0 0.0 0.00 0.36 0.36 85 1010.5
20260903235101 28 10 0.0 0.0 0.00 0.36 0.36 85 1010.4
20260903235004 28 11 0.0 0.0 0.00 0.36 0.36 85 1010.4
20260903234902 28 11 0.0 0.0 0.00 0.36 0.36 85 1010.4
20260903234802 28 11 0.0 0.0 0.00 0.36 0.36 85 1010.4
20260903234702 28 11 0.0 0.0 0.00 0.36 0.36 85 1010.3
20260903234603 28 11 0.0 0.0 0.00 0.36 0.36 85 1010.5
20260903234503 28 11 0.0 0.0 0.00 0.36 0.36 85 1010.4
20260903234403 28 11 0.0 0.0 0.00 0.36 0.36 86 1010.5
20260903234302 28 11 0.0 0.0 0.00 0.36 0.36 86 1010.4
20260903234204 28 11 0.0 0.0 0.00 0.36 0.36 86 1010.4
20260903234102 28 11 0.0 0.0 0.00 0.36 0.36 86 1010.4
20260903234004 28 11 0.0 0.0 0.00 0.36 0.36 86 1010.4
20260903233901 28 11 0.0 0.0 0.00 0.36 0.36 86 1010.4
20260903233802 28 11 0.0 0.0 0.00 0.36 0.36 85 1010.4
20260903233703 28 11 0.0 0.0 0.00 0.36 0.36 85 1010.5
20260903233602 28 11 0.0 0.0 0.00 0.36 0.36 85 1010.4
20260903233502 28 11 0.0 0.0 0.00 0.36 0.36 85 1010.5
20260903233402 28 11 0.0 0.0 0.00 0.36 0.36 85 1010.5
20260903233302 28 11 0.0 0.0 0.00 0.36 0.36 85 1010.4
20260903233203 28 11 0.0 0.0 0.00 0.36 0.36 85 1010.4
20260903233102 28 11 0.0 0.0 0.00 0.36 0.36 85 1010.4
20260903233004 28 11 0.0 0.0 0.00 0.36 0.36 85 1010.4
20260903232903 28 11 0.0 0.0 0.00 0.36 0.36 85 1010.5
20260903232803 28 11 0.0 0.0 0.00 0.36 0.36 85 1010.4
20260903232703 28 11 0.0 0.0 0.00 0.36 0.36 85 1010.4
20260903232602 28 11 0.0 0.0 0.00 0.36 0.36 84 1010.3
20260903232503 28 11 0.0 0.0 0.00 0.36 0.36 84 1010.4
20260903232401 28 11 0.0 0.0 0.00 0.36 0.36 84 1010.4
20260903232305 28 11 0.0 0.0 0.00 0.36 0.36 84 1010.4
20260903232202 28 11 0.0 1.6 0.00 0.36 0.36 84 1010.5
20260903232102 28 11 0.0 3.2 0.00 0.36 0.36 85 1010.4
20260903232003 28 11 0.0 3.2 0.00 0.36 0.36 85 1010.4
20260903231903 28 11 0.0 3.2 0.00 0.36 0.36 85 1010.5
20260903231803 28 11 0.0 3.2 0.00 0.36 0.36 85 1010.4
20260903231703 28 11 0.0 3.2 0.00 0.36 0.36 84 1010.5
20260903231603 28 11 0.0 4.8 0.00 0.36 0.36 85 1010.5
20260903231501 28 11 0.0 4.8 0.00 0.36 0.36 85 1010.6
20260903231359 28 11 0.0 4.8 0.00 0.36 0.36 85 1010.5
20260903231256 28 11 1.6 4.8 0.00 0.36 0.36 85 1010.5
20260903231157 28 11 1.6 4.8 0.00 0.36 0.36 85 1010.5
20260903231055 28 11 1.6 4.8 0.00 0.36 0.36 85 1010.4
20260903230954 28 11 1.6 4.8 0.00 0.36 0.36 85 1010.5
20260903230852 28 11 1.6 4.8 0.00 0.36 0.36 85 1010.5
20260903230749 28 11 3.2 4.8 0.00 0.36 0.36 84 1010.5
20260903230649 28 11 1.6 4.8 0.00 0.36 0.36 84 1010.5
20260903230549 28 30 1.6 4.8 0.00 0.36 0.36 85 1010.5
20260903230447 28 30 1.6 4.8 0.00 0.36 0.36 85 1010.5
20260903230345 28 30 1.6 4.8 0.00 0.36 0.36 84 1010.4
20260903230241 28 30 3.2 4.8 0.00 0.36 0.36 84 1010.5
20260903230140 28 30 3.2 4.8 0.00 0.36 0.36 84 1010.5
20260903230041 28 31 3.2 4.8 0.00 0.36 0.36 84 1010.4
20260903225939 28 31 3.2 4.8 0.00 0.36 0.36 84 1010.4
20260903225837 28 31 1.6 4.8 0.00 0.36 0.36 84 1010.4